[[{"header":{"parameterUnit":"m.s-1","parameterCategory":1,"la1":30.6,"la2":29.2853,"lo1":-89.7004,"lo2":-87.6739,"dy":0.0162,"dx":0.0183,"nx":112,"ny":82,"refTime":"2023-03-15T00:00:00:Z","depth":0,"parameterNumber":2,"parameterNumberName":"U-component_of_WINDS"},"data":[0.0,0.0,0.0,0.0,0.0,0.0,0.0,0.0,0.0,0.0,0.0,0.0,0.0,0.0,0.0,0.0,0.0,0.0,0.0,0.0,0.0,0.0,0.0,0.0,0.0,0.0,0.0,0.0,0.0,0.0,0.0,0.0,0.0,0.0,0.0,0.0,0.0,0.0,0.0,0.0,0.0,0.0,0.0,0.0,0.0,0.0,0.0,0.0,0.0,0.0,0.0,0.0,0.0,0.0,0.0,0.0,0.0,0.0,0.0,0.0,0.0,0.0,0.0,0.0,0.0,0.0,0.0,0.0,0.0,0.0,0.0,0.0,0.0,0.0,0.0,0.0,0.0,0.0,0.0,0.0,0.0,0.0,0.0,0.0,0.0,0.0,0.0,0.0,0.0,0.0,0.0,8.8711,8.7969,8.75,8.75,8.75,8.7851,8.8633,0.0,0.0,0.0,0.0,0.0,0.0,0.0,0.0,0.0,0.0,0.0,0.0,0.0,0.0,0.0,0.0,0.0,0.0,0.0,0.0,0.0,0.0,0.0,0.0,0.0,0.0,0.0,0.0,0.0,0.0,0.0,0.0,0.0,0.0,0.0,0.0,0.0,0.0,0.0,0.0,0.0,0.0,0.0,0.0,0.0,0.0,0.0,0.0,0.0,0.0,0.0,0.0,0.0,0.0,0.0,0.0,0.0,0.0,0.0,0.0,0.0,0.0,0.0,0.0,0.0,0.0,0.0,0.0,0.0,0.0,0.0,0.0,0.0,0.0,0.0,0.0,0.0,0.0,0.0,0.0,0.0,0.0,0.0,0.0,0.0,0.0,0.0,0.0,0.0,0.0,0.0,0.0,0.0,0.0,0.0,0.0,0.0,0.0,0.0,0.0,0.0,0.0,0.0,0.0,9.0351,8.8867,8.7969,8.75,8.75,8.75,8.7851,8.8633,0.0,0.0,0.0,0.0,0.0,0.0,0.0,0.0,0.0,0.0,0.0,0.0,0.0,0.0,0.0,0.0,0.0,0.0,0.0,0.0,0.0,0.0,0.0,0.0,0.0,0.0,0.0,0.0,0.0,0.0,0.0,0.0,0.0,0.0,0.0,0.0,0.0,0.0,0.0,0.0,0.0,0.0,0.0,0.0,0.0,0.0,0.0,0.0,0.0,0.0,0.0,0.0,0.0,0.0,0.0,0.0,0.0,0.0,0.0,0.0,0.0,0.0,0.0,0.0,0.0,0.0,0.0,0.0,0.0,0.0,0.0,0.0,0.0,0.0,0.0,0.0,0.0,0.0,0.0,0.0,0.0,0.0,0.0,0.0,0.0,0.0,0.0,0.0,0.0,0.0,0.0,0.0,0.0,0.0,0.0,0.0,0.0,0.0,0.0,0.0,0.0,0.0,0.0,9.1015,9.0625,8.8906,8.8789,8.8867,8.8867,8.8867,8.9219,9.0078,8.9336,0.0,0.0,0.0,0.0,0.0,0.0,0.0,0.0,0.0,0.0,0.0,0.0,0.0,0.0,0.0,0.0,0.0,0.0,0.0,0.0,0.0,0.0,0.0,0.0,0.0,0.0,0.0,0.0,0.0,0.0,0.0,0.0,0.0,0.0,0.0,0.0,0.0,0.0,0.0,0.0,0.0,0.0,0.0,0.0,0.0,0.0,0.0,0.0,0.0,0.0,0.0,0.0,0.0,0.0,0.0,0.0,0.0,0.0,0.0,0.0,0.0,0.0,0.0,0.0,0.0,0.0,0.0,0.0,0.0,0.0,0.0,0.0,0.0,0.0,0.0,0.0,0.0,0.0,0.0,0.0,0.0,0.0,0.0,0.0,0.0,0.0,0.0,0.0,0.0,0.0,0.0,0.0,0.0,0.0,0.0,0.0,0.0,0.0,0.0,0.0,0.0,0.0,9.0898,9.0703,8.9179,8.9609,9.0,9.0,9.0,9.0351,9.125,9.0664,0.0,0.0,0.0,0.0,0.0,0.0,0.0,0.0,0.0,0.0,0.0,0.0,0.0,0.0,0.0,0.0,0.0,0.0,0.0,0.0,0.0,0.0,0.0,0.0,0.0,0.0,0.0,0.0,0.0,0.0,0.0,0.0,0.0,0.0,0.0,0.0,0.0,0.0,0.0,0.0,0.0,0.0,0.0,0.0,0.0,0.0,0.0,0.0,0.0,0.0,0.0,0.0,0.0,0.0,0.0,0.0,0.0,0.0,0.0,0.0,0.0,0.0,0.0,0.0,0.0,0.0,0.0,0.0,0.0,0.0,0.0,0.0,0.0,0.0,0.0,0.0,0.0,0.0,0.0,0.0,0.0,0.0,0.0,0.0,0.0,0.0,0.0,0.0,0.0,0.0,0.0,0.0,0.0,0.0,0.0,0.0,0.0,0.0,0.0,0.0,0.0,0.0,9.125,9.0937,9.0,8.9961,9.0,9.0,9.0,9.0351,9.125,9.125,0.0,0.0,0.0,0.0,0.0,0.0,0.0,0.0,0.0,0.0,0.0,0.0,0.0,0.0,0.0,0.0,0.0,0.0,0.0,0.0,0.0,0.0,0.0,0.0,0.0,0.0,0.0,0.0,0.0,0.0,0.0,0.0,0.0,0.0,0.0,0.0,0.0,0.0,0.0,0.0,0.0,0.0,0.0,0.0,0.0,0.0,0.0,0.0,0.0,0.0,0.0,0.0,0.0,0.0,0.0,0.0,0.0,0.0,0.0,0.0,0.0,0.0,0.0,0.0,0.0,0.0,0.0,0.0,0.0,0.0,0.0,0.0,0.0,0.0,0.0,0.0,0.0,0.0,0.0,0.0,0.0,0.0,0.0,0.0,0.0,0.0,0.0,0.0,0.0,0.0,0.0,0.0,0.0,0.0,0.0,0.0,0.0,0.0,0.0,0.0,0.0,0.0,9.1758,9.1797,0.0,9.1289,9.1601,9.1601,9.1601,9.1758,9.2109,0.0,0.0,0.0,0.0,0.0,0.0,0.0,0.0,0.0,0.0,0.0,0.0,0.0,0.0,0.0,0.0,0.0,0.0,0.0,0.0,0.0,0.0,0.0,0.0,0.0,0.0,0.0,0.0,0.0,0.0,0.0,0.0,0.0,0.0,0.0,0.0,0.0,0.0,0.0,0.0,0.0,0.0,0.0,0.0,0.0,0.0,0.0,0.0,0.0,0.0,0.0,0.0,0.0,0.0,0.0,0.0,0.0,0.0,0.0,0.0,0.0,0.0,0.0,0.0,0.0,0.0,0.0,0.0,0.0,0.0,0.0,0.0,0.0,0.0,0.0,0.0,0.0,0.0,0.0,0.0,0.0,0.0,0.0,0.0,0.0,0.0,0.0,0.0,0.0,0.0,0.0,0.0,0.0,0.0,0.0,0.0,0.0,0.0,0.0,0.0,0.0,0.0,9.2226,9.2656,9.2695,0.0,9.2226,9.2617,9.2617,9.2851,9.3008,9.3008,0.0,0.0,0.0,0.0,0.0,0.0,0.0,0.0,0.0,0.0,0.0,0.0,0.0,0.0,0.0,0.0,0.0,0.0,0.0,0.0,0.0,0.0,0.0,0.0,0.0,0.0,0.0,0.0,0.0,0.0,0.0,0.0,0.0,0.0,0.0,0.0,0.0,0.0,0.0,0.0,0.0,0.0,0.0,0.0,0.0,0.0,0.0,0.0,0.0,0.0,0.0,0.0,0.0,0.0,0.0,0.0,0.0,0.0,0.0,0.0,0.0,0.0,0.0,0.0,0.0,0.0,0.0,0.0,0.0,0.0,0.0,0.0,0.0,0.0,0.0,0.0,0.0,0.0,0.0,0.0,0.0,0.0,0.0,0.0,0.0,0.0,0.0,0.0,0.0,0.0,0.0,0.0,0.0,0.0,0.0,0.0,0.0,0.0,0.0,0.0,0.0,0.0,9.4023,9.3906,9.3554,9.2695,9.2617,9.2617,9.2617,9.3398,9.3906,0.0,0.0,0.0,0.0,0.0,0.0,0.0,0.0,0.0,0.0,0.0,0.0,0.0,0.0,0.0,0.0,0.0,0.0,0.0,0.0,0.0,0.0,0.0,0.0,0.0,0.0,0.0,0.0,0.0,0.0,0.0,0.0,0.0,0.0,0.0,0.0,0.0,0.0,0.0,0.0,0.0,0.0,0.0,0.0,0.0,0.0,0.0,0.0,0.0,0.0,0.0,0.0,0.0,0.0,0.0,0.0,0.0,0.0,0.0,0.0,0.0,0.0,0.0,0.0,0.0,0.0,0.0,0.0,0.0,0.0,0.0,0.0,0.0,0.0,0.0,0.0,0.0,0.0,0.0,0.0,0.0,0.0,0.0,0.0,0.0,0.0,0.0,0.0,0.0,0.0,0.0,0.0,0.0,0.0,0.0,0.0,0.0,0.0,0.0,0.0,0.0,0.0,0.0,9.3945,9.3359,9.289,9.2617,9.2617,9.2617,9.2617,9.3398,9.3906,9.3906,0.0,0.0,0.0,0.0,0.0,0.0,0.0,0.0,0.0,0.0,0.0,0.0,0.0,0.0,0.0,0.0,0.0,0.0,0.0,0.0,0.0,0.0,0.0,0.0,0.0,0.0,0.0,0.0,0.0,0.0,0.0,0.0,0.0,0.0,0.0,0.0,0.0,0.0,0.0,0.0,0.0,0.0,0.0,0.0,0.0,0.0,0.0,0.0,0.0,0.0,0.0,0.0,0.0,0.0,0.0,0.0,0.0,0.0,0.0,0.0,0.0,0.0,0.0,0.0,0.0,0.0,0.0,0.0,0.0,0.0,0.0,0.0,0.0,0.0,0.0,0.0,0.0,0.0,0.0,0.0,0.0,0.0,0.0,0.0,0.0,0.0,0.0,0.0,0.0,0.0,0.0,0.0,0.0,0.0,0.0,0.0,0.0,0.0,0.0,0.0,0.0,0.0,9.4453,9.3672,9.3008,9.2656,9.2617,9.2617,9.2617,9.3711,9.4414,9.4414,0.0,0.0,0.0,0.0,0.0,0.0,0.0,0.0,0.0,0.0,0.0,0.0,0.0,0.0,0.0,0.0,0.0,0.0,0.0,0.0,0.0,0.0,0.0,0.0,0.0,0.0,0.0,0.0,0.0,0.0,0.0,0.0,0.0,0.0,0.0,0.0,0.0,0.0,0.0,0.0,0.0,0.0,0.0,0.0,0.0,0.0,0.0,0.0,0.0,0.0,0.0,0.0,0.0,0.0,0.0,0.0,0.0,0.0,0.0,0.0,0.0,0.0,0.0,0.0,0.0,0.0,0.0,0.0,0.0,0.0,0.0,0.0,0.0,0.0,0.0,0.0,0.0,0.0,0.0,0.0,0.0,0.0,0.0,0.0,0.0,0.0,0.0,0.0,0.0,0.0,0.0,0.0,0.0,0.0,0.0,0.0,0.0,0.0,0.0,0.0,0.0,0.0,9.5312,9.4375,9.3476,9.2695,9.2617,9.2617,9.2617,9.4101,9.5117,9.5195,0.0,0.0,0.0,0.0,0.0,0.0,0.0,0.0,0.0,0.0,0.0,0.0,0.0,0.0,0.0,0.0,0.0,0.0,0.0,0.0,0.0,0.0,0.0,0.0,0.0,0.0,0.0,0.0,0.0,0.0,0.0,0.0,0.0,0.0,0.0,0.0,0.0,0.0,0.0,0.0,0.0,0.0,0.0,0.0,0.0,0.0,0.0,0.0,0.0,0.0,0.0,0.0,0.0,0.0,0.0,0.0,0.0,0.0,0.0,0.0,8.9961,0.0,0.0,0.0,0.0,0.0,0.0,0.0,0.0,0.0,0.0,0.0,0.0,0.0,0.0,0.0,0.0,0.0,0.0,0.0,0.0,0.0,0.0,0.0,0.0,0.0,0.0,0.0,0.0,0.0,0.0,0.0,0.0,0.0,0.0,0.0,0.0,0.0,0.0,0.0,0.0,0.0,9.5234,9.3828,9.2812,9.2617,9.2617,9.2617,9.2617,9.3554,9.4453,9.5156,0.0,0.0,0.0,0.0,0.0,0.0,0.0,0.0,0.0,0.0,0.0,0.0,0.0,0.0,0.0,0.0,0.0,0.0,0.0,0.0,0.0,0.0,0.0,0.0,0.0,0.0,0.0,0.0,0.0,0.0,0.0,0.0,0.0,0.0,0.0,0.0,0.0,0.0,0.0,0.0,0.0,0.0,0.0,0.0,0.0,0.0,0.0,0.0,0.0,0.0,0.0,0.0,0.0,0.0,0.0,0.0,0.0,0.0,0.0,0.0,0.0,9.0781,0.0,0.0,0.0,0.0,0.0,0.0,0.0,0.0,0.0,0.0,0.0,0.0,0.0,0.0,0.0,0.0,0.0,0.0,0.0,0.0,0.0,0.0,0.0,0.0,0.0,0.0,0.0,0.0,0.0,0.0,0.0,0.0,0.0,0.0,0.0,0.0,0.0,0.0,0.0,0.0,9.5195,9.3672,9.2617,9.2617,9.2617,9.2617,9.2617,9.3398,9.4101,9.4531,9.5781,0.0,0.0,0.0,0.0,0.0,0.0,0.0,0.0,0.0,0.0,0.0,0.0,0.0,0.0,0.0,0.0,0.0,0.0,0.0,0.0,0.0,0.0,0.0,0.0,0.0,0.0,0.0,0.0,0.0,0.0,0.0,0.0,0.0,0.0,0.0,0.0,0.0,0.0,0.0,0.0,0.0,0.0,0.0,0.0,0.0,0.0,0.0,0.0,0.0,0.0,0.0,0.0,0.0,8.9622,9.0004,9.0035,9.0735,9.1438,9.2045,9.1484,9.1701,9.2493,0.0,0.0,0.0,0.0,0.0,0.0,0.0,0.0,0.0,0.0,0.0,0.0,0.0,0.0,0.0,0.0,0.0,0.0,0.0,0.0,0.0,0.0,0.0,0.0,0.0,9.5859,9.6133,0.0,0.0,0.0,0.0,0.0,0.0,0.0,0.0,0.0,0.0,0.0,0.0,9.5195,9.3672,9.2617,9.2617,9.2617,9.2617,9.2617,9.3242,9.375,9.3906,9.5234,9.6172,0.0,0.0,0.0,0.0,0.0,0.0,0.0,0.0,0.0,0.0,0.0,0.0,0.0,0.0,0.0,0.0,0.0,0.0,0.0,0.0,0.0,0.0,0.0,0.0,0.0,0.0,0.0,0.0,0.0,0.0,0.0,0.0,8.3696,8.4448,0.0,0.0,0.0,0.0,0.0,0.0,0.0,0.0,0.0,0.0,0.0,0.0,0.0,8.8355,8.8473,8.9221,8.993,9.056,9.1396,9.1703,9.1598,9.1701,9.1832,9.192,9.1836,0.0,9.2176,9.2176,0.0,0.0,0.0,0.0,0.0,0.0,0.0,0.0,0.0,0.0,0.0,0.0,0.0,0.0,0.0,0.0,0.0,0.0,0.0,0.0,0.0,0.0,9.6328,9.6328,9.5859,9.5547,0.0,9.6953,9.7539,9.7539,9.7617,0.0,0.0,0.0,0.0,0.0,0.0,0.0,9.5195,9.3672,9.2617,9.2617,9.2617,9.2617,9.2617,9.2695,9.3086,9.3867,9.4101,9.4922,9.6445,9.6601,0.0,0.0,0.0,0.0,0.0,0.0,0.0,0.0,0.0,0.0,0.0,0.0,0.0,0.0,0.0,0.0,0.0,0.0,0.0,0.0,0.0,0.0,0.0,0.0,0.0,0.0,0.0,0.0,0.0,8.4273,8.4619,8.5347,8.5154,8.5471,0.0,0.0,0.0,0.0,0.0,0.0,0.0,0.0,0.0,8.8923,8.8932,8.9324,9.0191,9.0586,9.0725,9.061,9.0995,9.1126,9.1047,9.1056,9.132,9.1793,9.1793,9.182,9.1913,9.2699,9.3047,9.3192,0.0,0.0,0.0,0.0,9.4336,9.3945,9.4336,9.4453,0.0,9.4453,0.0,0.0,0.0,0.0,0.0,0.0,0.0,0.0,0.0,0.0,9.6367,9.5898,9.5469,9.5312,9.5703,9.6054,9.6562,0.0,9.7695,9.7695,9.7695,0.0,0.0,0.0,0.0,0.0,9.4531,9.3398,9.2617,9.2617,9.2617,9.2617,9.2617,9.2617,9.2773,9.3164,9.3633,9.4258,9.5,9.5976,9.6679,0.0,0.0,0.0,0.0,0.0,0.0,0.0,0.0,0.0,0.0,0.0,0.0,0.0,0.0,0.0,0.0,0.0,0.0,0.0,0.0,0.0,0.0,0.0,0.0,0.0,0.0,0.0,0.0,8.5052,8.548,8.6531,8.6464,8.6812,0.0,0.0,0.0,0.0,0.0,0.0,8.8298,8.8459,8.8703,8.9017,8.9245,8.9775,9.0721,9.1155,9.1052,9.0411,9.0648,9.0728,9.0728,9.0728,9.1083,9.1714,9.1714,9.1714,9.1793,9.2779,9.3212,9.3308,9.4046,9.4393,9.4439,9.4673,9.4322,9.3814,9.4048,9.4136,9.414,9.414,0.0,9.5586,9.5781,0.0,0.0,0.0,0.0,9.7187,9.6367,9.6015,9.5664,9.5039,9.4687,9.4609,9.4804,9.4883,9.5312,0.0,9.707,9.707,9.707,0.0,0.0,0.0,0.0,9.4648,9.3984,9.3125,9.2617,9.2617,9.2617,9.2617,9.2617,9.2617,9.2617,9.2617,9.3203,9.3672,9.3906,9.5156,9.6054,9.6484,0.0,0.0,0.0,0.0,0.0,0.0,0.0,0.0,0.0,0.0,0.0,0.0,0.0,0.0,0.0,0.0,0.0,0.0,0.0,0.0,0.0,0.0,0.0,0.0,0.0,0.0,0.0,0.0,0.0,8.8171,8.7431,0.0,0.0,0.0,0.0,8.8286,8.832,8.8295,8.8137,8.8887,8.8927,8.798,8.8792,8.884,8.809,8.9668,9.0455,9.0413,9.1241,9.1635,9.1635,9.1635,9.1675,9.1714,9.1714,9.1714,9.1714,9.1754,9.1872,9.1995,9.2059,9.2132,9.2378,9.32,9.3474,9.3552,9.4374,9.4743,9.4844,9.4844,9.5586,9.6562,9.7344,9.7617,0.0,0.0,9.6562,9.6367,9.5508,9.4648,9.4023,9.3984,9.332,9.2969,9.3789,9.3984,9.4258,0.0,9.5312,9.5312,9.5312,0.0,9.5312,9.5273,9.4531,9.3945,9.3906,9.3125,9.2617,9.2617,9.2617,9.2617,9.2617,9.2617,9.2617,9.2617,9.2656,9.3047,9.3867,9.3984,9.4804,9.6484,9.6523,0.0,0.0,0.0,0.0,0.0,0.0,0.0,0.0,0.0,0.0,0.0,0.0,0.0,0.0,0.0,0.0,0.0,0.0,0.0,0.0,0.0,0.0,0.0,0.0,0.0,0.0,0.0,0.0,8.821,8.7525,0.0,8.7925,8.8575,8.8724,8.8201,8.9085,8.9156,8.8012,8.8794,8.909,8.8735,8.9541,9.0101,9.0334,9.0926,9.1241,9.1241,9.1556,9.1714,9.1714,9.1714,9.1714,9.1714,9.1714,9.1714,9.1714,9.1714,9.211,9.2794,9.3441,9.3725,9.3819,9.4133,9.3898,9.3426,9.3741,9.3887,9.4049,9.4592,9.5028,9.5419,9.5692,9.5771,9.5693,9.5419,9.5406,9.5273,9.4453,9.4062,9.375,9.3203,9.2812,9.2695,9.3008,9.3047,9.3164,9.3476,9.4414,9.5195,9.5195,9.5195,9.5,9.4453,9.4101,9.3711,9.3125,9.2773,9.2617,9.2617,9.2617,9.2617,9.2617,9.2617,9.2617,9.2617,9.2617,9.2734,9.3047,9.3594,9.4453,9.5625,9.6211,9.6914,0.0,0.0,0.0,0.0,0.0,0.0,0.0,0.0,0.0,0.0,0.0,0.0,0.0,0.0,0.0,0.0,0.0,0.0,0.0,0.0,0.0,0.0,0.0,0.0,0.0,0.0,8.7563,8.8226,8.7691,8.7431,8.779,8.8456,8.8655,8.8074,8.8984,8.9064,8.7958,8.8717,8.919,8.9217,8.9964,9.0692,9.1241,9.1556,9.1714,9.1714,9.1714,9.1714,9.1714,9.1714,9.1714,9.1714,9.1714,9.1714,9.1714,9.1714,9.2108,9.2779,9.3411,9.3687,9.3687,9.3687,9.3332,9.2818,9.2897,9.2897,9.3042,9.3971,9.4257,9.4336,9.465,9.4767,9.4727,9.4493,9.45,9.4381,9.3551,9.3398,9.332,9.2734,9.2617,9.2617,9.2617,9.2617,9.2617,9.2617,9.3515,9.4336,9.4336,9.4336,9.414,9.3554,9.3476,9.3242,9.2656,9.2617,9.2617,9.2617,9.2851,9.3047,9.3047,9.332,9.3359,9.3047,9.332,9.3359,9.3047,9.3867,9.4765,9.5625,9.6484,9.7187,9.7695,0.0,0.0,0.0,0.0,0.0,0.0,0.0,0.0,0.0,0.0,0.0,0.0,0.0,0.0,0.0,0.0,0.0,0.0,0.0,0.0,0.0,0.0,0.0,8.8259,8.8049,8.7965,8.8259,8.8048,8.8236,8.9222,8.8471,8.792,8.7918,8.7957,8.7957,8.7958,8.8776,8.923,8.9232,9.0017,9.0452,9.0452,9.128,9.1714,9.1714,9.1714,9.1714,9.1714,9.1714,9.1714,9.1714,9.1714,9.1714,9.1714,9.1714,9.1714,9.1714,9.1714,9.1714,9.1714,9.1714,9.1714,9.1714,9.1833,9.1872,9.2069,9.3015,9.3332,9.3529,9.4514,9.479,9.4672,9.4002,9.3814,9.3633,9.2819,9.2578,9.2578,9.2578,9.2578,9.2578,9.2578,9.2617,9.2617,9.2617,9.2617,9.2617,9.2617,9.2617,9.2656,9.2656,9.2656,0.0,9.2695,9.2695,9.2695,9.2695,9.3437,9.3945,9.3945,9.4726,9.4844,9.3984,9.4726,9.4804,9.3984,9.4765,9.5625,9.6484,9.7304,9.7695,9.7695,0.0,0.0,0.0,0.0,0.0,0.0,0.0,0.0,0.0,0.0,0.0,0.0,0.0,0.0,0.0,0.0,0.0,0.0,0.0,0.0,0.0,0.0,8.8663,8.8201,8.7461,8.7225,8.7926,8.7382,8.7072,8.7348,8.8275,8.8582,8.7958,8.9043,8.947,8.8855,8.9634,9.0063,9.0059,9.09,9.1359,9.1359,9.1596,9.1714,9.1714,9.1714,9.1714,9.1714,9.1714,9.1714,9.1714,9.1714,9.1714,9.1714,9.1714,9.1714,9.1714,9.1714,9.1714,9.1714,9.1714,9.1714,9.1714,9.1753,9.1754,9.1793,9.2069,9.2187,9.2227,9.2503,9.2583,9.2542,9.2345,9.2386,9.239,9.2168,9.2144,9.2227,9.2227,9.2355,9.2461,9.2461,9.2539,9.2617,9.2617,9.3125,9.3359,9.2695,9.3125,9.3554,9.3554,9.4062,0.0,9.4492,9.4492,9.4492,9.4492,9.4687,9.4844,9.4844,9.5078,9.5117,9.4844,9.5078,9.5078,9.4844,9.5078,9.5625,9.6484,9.7304,9.7695,0.0,0.0,0.0,0.0,0.0,0.0,0.0,0.0,0.0,0.0,0.0,0.0,0.0,0.0,0.0,0.0,0.0,0.0,0.0,0.0,0.0,0.0,8.8429,8.8389,8.7573,8.7262,8.7185,8.734,8.7223,8.7146,8.7146,8.8391,8.8973,8.8466,8.9665,9.0209,8.9746,9.0485,9.0952,9.0958,9.1448,9.1714,9.1714,9.1714,9.1714,9.1714,9.1714,9.1714,9.1714,9.1714,9.1714,9.1714,9.1714,9.1714,9.1714,9.1714,9.1714,0.0,0.0,0.0,0.0,0.0,9.1714,9.1714,9.1714,9.1714,9.1714,9.1714,9.1714,9.1714,9.1754,9.1793,9.1793,9.1833,9.1915,9.1991,9.1991,9.2023,9.2088,9.2088,9.2179,9.2368,9.2757,9.2886,9.3042,9.3394,9.3936,0.0,9.3633,9.4062,9.4453,9.4453,9.4883,9.5195,9.5195,9.5195,9.5195,9.5195,9.5547,9.5742,9.5742,9.6054,0.0,0.0,0.0,9.6797,9.6797,9.6797,0.0,0.0,0.0,9.7695,9.7695,0.0,0.0,0.0,9.7265,9.7187,0.0,0.0,0.0,0.0,0.0,0.0,0.0,0.0,0.0,0.0,0.0,0.0,0.0,0.0,0.0,0.0,8.7535,8.7726,8.6875,8.7494,8.7726,8.6837,8.7535,8.8036,8.8036,8.8814,8.9322,8.9322,9.0093,9.0555,9.0555,0.0,0.0,0.0,0.0,9.1714,9.1714,9.1714,9.1714,9.1714,9.1714,9.1714,9.1714,9.1714,9.1714,9.1714,9.1714,9.1714,9.1714,9.1714,9.1714,9.1714,9.1714,9.1714,9.1714,9.1714,9.1714,9.1714,9.1714,0.0,0.0,9.1714,9.1714,9.1714,9.1833,9.1872,9.1911,9.203,9.2069,9.2069,9.2185,9.2185,9.2224,9.2301,9.2342,9.2593,9.3343,9.3563,9.3797,9.458,9.4902,9.507,9.5078,9.5234,9.5351,9.5351,9.5429,9.5469,9.5469,9.5469,9.5469,9.5469,0.0,0.0,9.6797,9.7539,9.7656,9.6836,9.8086,9.8867,9.8867,9.8867,9.8437,9.7578,9.7578,9.7539,9.7422,9.7422,9.7461,9.7578,9.7656,9.7695,0.0,0.0,0.0,0.0,0.0,0.0,0.0,0.0,0.0,0.0,0.0,0.0,0.0,0.0,0.0,8.874,8.8857,8.8623,8.7765,8.8387,8.8621,8.7765,8.8428,8.8934,8.8934,8.9706,9.017,9.017,9.094,9.1443,9.1443,9.1598,9.1714,9.1714,9.1714,9.1714,9.1714,9.1714,9.1714,9.1714,0.0,0.0,9.1714,9.1714,9.1714,9.1714,9.1714,9.1714,9.1714,9.1714,9.1714,9.1714,9.1714,9.1714,9.1714,9.1714,9.1714,9.1714,9.1714,9.1714,9.1714,9.1714,9.1714,9.1714,9.1714,9.1753,0.0,9.1754,9.1793,9.1948,9.2642,9.2836,9.2992,9.3653,9.3935,9.4088,9.4232,9.4463,9.4675,9.4834,9.5592,9.6175,9.6202,9.6211,9.625,9.625,9.6797,9.7226,9.7226,9.7226,9.7226,9.7226,9.8008,9.8515,9.8515,9.9297,9.9414,9.8554,9.8164,9.7969,9.7969,9.7969,9.7578,9.6758,9.6719,9.6406,9.5664,9.5664,9.6054,9.6758,9.7383,9.7695,0.0,0.0,0.0,0.0,0.0,0.0,0.0,0.0,0.0,0.0,0.0,8.9785,0.0,0.0,8.9512,8.8698,8.8932,8.905,8.8621,8.9279,8.9474,8.866,8.928,8.9785,8.9785,9.0557,9.1058,9.1058,9.1443,9.1714,9.1714,9.1714,9.1714,9.1714,9.1714,9.1714,9.1714,9.1714,9.1714,9.1714,9.1714,9.1714,9.1714,9.1714,9.1714,9.1714,9.1714,9.1714,9.1714,9.1714,9.1951,9.2345,9.2345,9.2069,9.1714,9.1714,9.1714,9.1714,9.1714,9.1714,9.1714,9.1714,9.1983,9.2331,9.2331,9.2644,9.2955,9.2955,9.2955,9.3033,9.3497,9.3611,9.369,9.4119,9.4279,9.4476,9.49,9.5118,9.5335,9.5838,9.6473,9.692,9.6999,9.7062,9.7109,9.7109,9.7422,9.7851,9.8281,9.8359,9.8515,9.8945,9.9375,9.9648,9.9648,10.0,10.0312,10.0312,9.9492,9.8984,9.8984,9.8594,9.7969,9.7109,9.6719,9.6289,9.5859,9.539,9.5429,9.5859,9.625,9.6914,0.0,0.0,0.0,0.0,0.0,0.0,0.0,0.0,8.963,9.1135,9.0749,9.0015,8.9516,8.9822,8.9782,8.8577,8.8969,8.9437,8.9437,9.0131,9.0402,8.9746,9.0247,9.0633,9.0633,9.1288,9.1714,9.1714,9.1714,9.1714,9.1714,9.1714,9.1714,9.1714,9.1714,9.1714,9.1714,9.1714,9.1793,9.1951,9.1951,9.203,9.2187,9.2187,9.2187,9.2187,9.2187,9.2187,9.2187,9.2187,9.2583,9.3212,9.3238,9.2799,9.2171,9.2183,9.2187,9.2187,9.2183,9.2182,9.2182,9.2182,9.2642,9.3222,9.3222,9.369,9.4197,9.4197,9.4197,9.4235,9.4429,9.4467,9.4504,9.4661,9.4698,9.4891,9.5586,9.5779,9.6013,9.6825,9.7304,9.756,9.7697,9.7924,9.808,9.7968,9.7969,9.8281,9.914,9.9258,9.9531,10.0195,10.0508,10.0586,10.0781,10.0586,10.0898,10.1601,10.0781,10.0195,10.0117,9.9375,9.8515,9.75,9.6836,9.6406,9.625,9.5547,9.5195,9.5195,9.5195,9.5937,8.8663,8.9435,9.0207,9.1174,9.0826,9.048,0.0,0.0,8.9477,9.0363,8.9899,8.9516,9.0131,8.9746,8.9514,9.0014,9.0209,9.0286,9.0286,9.1019,9.152,9.1443,9.1482,9.1559,9.1559,9.1637,9.1714,9.1714,9.1714,9.1714,9.1714,9.1714,9.1714,9.1714,9.1714,9.1714,9.1714,9.1714,9.2108,9.2859,9.2859,9.3214,9.3923,9.3923,9.3923,9.3923,9.3923,9.3923,9.3923,9.3923,9.3963,9.4074,9.4055,9.3993,9.3921,9.3902,9.3923,9.3919,9.3903,9.3937,9.3935,9.3928,9.4001,9.4079,9.4079,9.4119,9.4197,9.4197,9.4197,9.439,9.5162,9.5355,9.5547,9.6321,9.6512,9.6553,9.663,9.6746,9.6866,9.698,9.772,9.836,9.84,9.9044,9.9408,9.8943,9.8867,9.9179,10.0,10.0195,10.0195,10.0312,10.1015,10.1797,10.25,10.1914,10.1484,10.1601,10.0781,9.9961,9.9179,9.9062,9.8242,9.6679,9.6562,9.6133,9.5351,9.5234,9.5195,9.5195,9.5195,9.5312,8.9667,9.0131,0.0,0.0,9.0325,8.9785,9.0172,8.9708,8.9437,9.0247,9.0131,9.0015,9.0325,9.0555,9.0594,0.0,9.0826,9.1172,9.1172,9.1484,9.1714,9.1714,9.1714,9.1714,9.1714,9.1714,9.1714,9.1714,9.1714,9.1714,9.1714,9.1714,9.1944,9.2449,9.2458,9.2662,9.3135,9.3135,9.3332,9.3687,9.3687,9.3866,9.4182,9.4182,9.4182,9.4182,9.4182,9.4182,9.4182,9.4182,9.4497,9.4967,9.4941,9.5284,9.5602,9.4565,9.4182,9.4219,9.4212,9.4208,9.421,9.4217,9.4534,9.4969,9.4969,9.5317,9.5704,9.5704,9.5704,9.5818,9.6166,9.6243,9.6359,9.6706,9.6783,9.6938,9.7441,9.7595,9.7792,9.8384,9.885,9.9145,9.9242,9.9553,10.0094,10.0902,10.009,9.9795,10.0694,10.1198,10.1901,10.3007,10.3594,10.3789,10.3711,10.3281,10.289,10.2383,10.1484,10.0898,10.0508,9.9531,9.8672,9.7969,9.6992,9.6328,9.5976,9.5469,9.5195,9.5195,9.5195,9.5195,9.0325,0.0,0.0,9.0131,8.963,8.9245,8.9475,8.9359,8.9437,9.0247,9.04,9.04,9.04,9.1097,9.1482,9.0865,9.1288,9.1714,9.1714,9.1714,9.1714,9.1714,9.1714,9.1714,9.1714,9.1714,9.1714,9.1714,9.1714,9.1714,9.1714,9.1714,9.2101,9.2987,9.2994,9.3393,9.4188,9.4216,9.4331,9.4565,9.4558,9.4692,9.4928,9.4928,9.4928,9.4928,9.4928,9.4928,9.4928,9.4928,9.5284,9.5875,9.5875,9.623,9.6665,9.5363,9.4928,9.4928,9.4928,9.4928,9.4932,9.4906,9.5343,9.5856,9.5856,9.6282,9.6783,9.6783,9.6783,9.686,9.7092,9.717,9.7209,9.7441,9.7477,9.7671,9.829,9.8443,9.864,9.939,9.9897,10.0313,10.0398,10.0817,10.1512,10.2786,10.1881,10.1296,10.2119,10.2691,10.3586,10.5006,10.5309,10.5195,10.4492,10.4492,10.4219,10.3281,10.2695,10.2109,10.1601,10.039,9.9609,9.9375,9.7929,9.7187,9.7187,9.6328,9.5781,9.5547,9.5547,9.5429,0.0,0.0,9.0209,8.9437,8.9206,8.94,9.017,8.9746,8.9437,9.0247,9.04,9.04,9.04,9.1097,9.1675,9.1675,9.1675,9.1714,9.1714,9.1714,9.1714,9.1714,9.1714,9.1714,0.0,9.1714,9.1714,9.1714,9.1714,9.1714,9.1714,9.1714,9.2101,9.2987,9.3,9.3391,9.4199,9.4201,9.4617,9.5446,9.5444,9.5915,9.6704,9.6704,9.6704,9.6704,9.6704,9.6704,9.6704,9.6704,9.6744,9.6744,9.6744,9.6783,9.6783,9.6744,9.6704,9.6704,9.6704,9.6704,9.6704,9.6704,9.6744,9.6746,9.6746,9.6783,9.6783,9.6783,9.6783,9.6976,9.7826,9.8058,9.8251,9.9021,9.9214,9.9214,9.9253,9.9253,9.9253,9.9294,10.069,10.1814,10.1812,10.3202,10.4283,10.4281,10.4299,10.4393,10.4708,10.48,10.48,10.4905,10.5116,10.5195,10.5195,10.5312,10.5117,10.4219,10.4101,10.3398,10.1719,10.1484,10.1094,10.0312,9.9375,9.8906,9.8906,9.8047,9.7226,9.6445,9.6445,9.6015,0.0,0.0,8.9553,8.9284,8.9206,8.9284,8.9553,8.9824,9.0054,9.0325,9.0865,9.1251,9.1251,9.1482,9.1714,9.1714,9.1714,9.1714,9.1714,9.1714,9.1714,9.1714,9.1714,0.0,0.0,0.0,0.0,9.1714,9.1714,9.1714,9.1714,9.1714,9.2335,9.3768,9.3785,9.4481,9.5895,9.5923,9.6074,9.6389,9.6941,9.7374,9.7689,9.8204,9.8478,9.8478,9.8478,9.8478,9.8478,9.8478,9.8478,9.8478,9.8478,9.8478,9.8478,9.8478,9.8478,9.8283,9.7177,9.7177,9.7651,9.7651,9.8036,9.8461,9.8461,9.8452,9.8443,9.8443,9.8443,9.852,9.8829,9.8907,9.8945,9.9253,9.9292,9.9448,9.9994,10.0613,10.1191,10.1812,10.2815,10.3589,10.3589,10.4013,10.4593,10.5212,10.4786,10.4593,10.5291,10.5482,10.5802,10.6399,10.6587,10.6489,10.5885,10.5899,10.5604,10.4882,10.4883,10.4414,10.3398,10.2812,10.2109,10.1211,10.0312,9.9844,9.9844,9.8984,9.8437,9.8125,9.7578,9.7148,0.0,8.9824,8.9206,8.9206,8.9437,8.963,8.963,9.0286,9.0865,9.0865,9.1327,9.1714,9.1714,9.1714,9.1714,9.1714,9.1714,9.1714,9.1714,9.1714,9.1714,9.1714,9.1985,9.237,0.0,0.0,0.0,9.2605,9.2333,9.2294,9.2567,9.2335,9.2915,9.462,9.4648,9.5501,9.7256,9.7256,9.7415,9.7691,9.8242,9.8544,9.8562,9.9075,9.9313,9.9313,9.9313,9.9313,9.9313,9.9313,9.9313,9.9313,9.9313,9.9313,9.9313,9.9313,9.9313,9.9158,9.8076,9.8045,9.8515,9.8529,9.887,9.9295,9.9303,9.9295,9.9288,9.929,9.9292,9.9369,9.968,9.9992,10.0299,10.0609,10.0916,10.1305,10.1812,10.2394,10.3011,10.3514,10.4285,10.4902,10.4902,10.5098,10.5484,10.6103,10.5989,10.5912,10.6103,10.6305,10.6582,10.7081,10.7315,10.7214,10.6598,10.6585,10.6315,10.5596,10.56,10.5295,10.4609,10.3711,10.3008,10.25,10.1406,10.0781,10.0781,9.9883,9.9453,9.9453,9.8906,9.8633,9.04,8.9822,8.9245,8.9245,8.9862,9.0478,9.0478,9.1097,9.1714,9.1714,9.1714,9.1714,0.0,0.0,9.1714,9.1753,9.1714,9.1714,9.1714,9.1753,9.1753,0.0,0.0,0.0,0.0,0.0,0.0,9.4307,0.0,9.3379,9.4158,9.3532,9.388,9.551,9.5624,9.6446,9.8124,9.8161,9.8552,9.9302,9.9341,9.9388,9.9444,9.9485,9.9524,9.9564,9.9564,9.9564,9.9564,9.9564,9.9564,9.9564,9.9564,9.9564,9.9564,9.9564,9.9564,9.9572,9.9558,9.9499,9.9372,9.9387,9.9444,9.9489,9.9504,9.9549,9.9551,9.956,9.9562,9.9758,10.0616,10.1388,10.22,10.309,10.3781,10.4399,10.4399,10.4397,10.4515,10.4515,10.5212,10.579,10.579,10.6494,10.7117,10.7117,10.7812,10.8003,10.7193,10.7115,10.7115,10.7115,10.7195,10.7313,10.7313,10.7512,10.7197,10.6409,10.6317,10.6016,10.5308,10.4492,10.4101,10.4219,10.2617,10.1719,10.1719,10.0781,10.039,10.039,10.0312,10.0312,9.04,9.0246,9.0093,9.0093,9.0749,9.1366,9.1366,9.1559,9.1714,9.1714,9.1714,9.1907,0.0,0.0,0.0,9.2563,9.2138,0.0,9.1714,9.2254,0.0,0.0,0.0,9.4156,9.4812,9.5044,0.0,0.0,9.4704,9.3963,9.4197,9.4619,9.5354,9.6437,9.7092,9.7957,9.8992,9.8982,9.9116,9.9313,9.9945,10.0607,10.1301,10.1891,10.2483,10.3114,10.3114,10.3114,10.3114,10.3114,10.3114,10.3114,10.3114,10.3114,10.3114,10.3114,10.3114,10.3118,10.3094,10.1916,10.0297,10.0319,10.1104,10.2202,10.2218,10.2612,10.309,10.3086,10.3084,10.32,10.3396,10.3589,10.3781,10.4013,10.4285,10.4399,10.4399,10.49,10.5403,10.5403,10.6103,10.669,10.669,10.7386,10.8005,10.8005,10.8699,10.8891,10.808,10.8506,10.8891,10.8891,10.8891,10.8891,10.8891,10.8392,10.8011,10.7905,10.7319,10.6611,10.6008,10.5901,10.5586,10.5,10.3984,10.3515,10.3515,10.1992,10.1289,10.1289,10.0586,10.0312,9.0865,9.0671,9.048,9.0865,9.1329,9.1714,9.1714,9.1714,9.1791,9.2176,9.2254,0.0,0.0,0.0,0.0,0.0,0.0,0.0,9.1668,9.2087,9.2345,0.0,9.3044,0.0,9.4744,9.5171,9.5902,0.0,9.5662,9.5031,9.5768,9.5961,9.6595,9.7862,9.8365,9.9195,10.0387,10.0812,10.1183,10.1498,10.2009,10.2483,10.2996,10.3518,10.4017,10.4411,0.0,10.4411,10.4411,10.4411,10.4411,10.4411,10.4411,10.4411,10.4411,10.4411,10.4411,10.4411,10.4411,10.3506,10.2287,10.2317,10.2916,10.3696,10.3687,10.3991,10.4389,10.4393,10.4397,10.4399,10.4399,10.4709,10.5018,10.5018,10.5291,10.5487,10.5487,10.5912,10.6415,10.68,10.7189,10.7696,10.8003,10.8506,10.8813,10.8813,10.9507,10.9894,10.9509,10.9509,10.9507,10.9507,10.9507,10.9507,10.9507,10.9084,10.8703,10.8406,10.8013,10.7386,10.6686,10.6405,10.6115,10.5781,10.5,10.4687,10.4804,10.3398,10.2695,10.2695,10.1797,10.1406,9.1482,9.1134,9.0749,9.152,9.1714,9.1714,9.1714,9.1791,9.2101,9.2834,0.0,9.3377,9.4079,9.3534,9.2985,9.2976,0.0,9.1673,9.1594,9.166,9.1709,9.1598,9.2439,9.3327,9.4098,9.4959,9.6115,9.7608,9.6382,9.6317,9.7994,9.7532,9.7991,9.9758,9.9798,10.0587,10.2204,10.3,10.3694,10.4402,10.4402,10.4402,10.4518,10.4503,10.4593,10.4711,10.4711,0.0,10.4711,10.4711,10.4711,10.4711,10.4711,10.4711,10.4711,10.4711,10.4711,10.4711,10.4711,10.4711,10.4683,10.4503,10.4482,10.459,10.4611,10.4711,10.4715,10.4693,10.4705,10.4709,10.4709,10.5289,10.5908,10.5908,10.6415,10.7001,10.7001,10.7117,10.7386,10.8312,10.8506,10.8699,10.9393,10.9587,10.9701,10.9701,11.0395,11.1014,11.1014,11.0318,10.9817,10.9817,10.9817,10.9817,10.9817,10.9701,10.9393,10.8699,10.839,10.8005,10.739,10.6604,10.6318,10.6618,10.5818,10.5508,10.5586,10.4804,10.4414,10.4414,10.3594,10.3203,9.1675,9.1598,9.152,9.1675,9.1714,9.1714,9.1714,9.2254,0.0,0.0,0.0,9.404,9.4158,9.3534,9.2967,9.2862,0.0,0.0,0.0,0.0,9.2494,0.0,0.0,0.0,0.0,0.0,0.0,0.0,0.0,9.7235,9.8959,9.9628,10.0686,10.2293,10.2491,10.2885,10.3712,10.4009,10.4098,10.4216,10.4216,10.4493,10.5202,10.5191,10.558,10.6409,10.6409,0.0,10.6488,10.6488,10.6488,10.6488,10.6488,10.6488,10.6488,10.6488,10.6488,10.6488,10.6488,10.6488,10.6293,10.4884,10.4888,10.5517,10.5505,10.6014,10.6488,10.6492,10.6494,10.6494,10.6494,10.669,10.6806,10.6806,10.6883,10.7001,10.7001,10.7618,10.8312,10.9084,10.9314,10.9314,10.9507,11.0088,11.0588,11.0588,11.1285,11.1901,11.1901,11.1708,11.1592,11.1592,11.1592,11.1592,11.1592,11.1014,11.0511,11.0397,10.9086,10.8196,10.808,10.7386,10.6995,10.7094,10.6517,10.6289,10.6289,10.5586,10.5312,10.5312,10.5117,10.5,9.1714,9.1714,9.1714,9.1714,9.1714,9.183,9.2254,0.0,0.0,0.0,0.0,9.4838,9.4884,9.4193,0.0,0.0,0.0,0.0,0.0,0.0,0.0,0.0,0.0,0.0,0.0,0.0,0.0,0.0,0.0,9.8334,9.9189,10.0896,10.2391,10.3605,10.3712,10.399,10.4809,10.4788,10.5082,10.5518,10.5518,10.5715,10.611,10.611,10.6308,10.6716,10.68,0.0,10.6883,10.7001,10.7001,10.6883,10.7001,10.7001,10.7117,10.7512,10.771,10.771,10.8184,10.8303,10.8184,10.7315,10.6686,10.6409,10.6409,10.6686,10.7001,10.7001,10.7001,10.7001,10.7001,10.7309,10.7696,10.7696,10.8003,10.8312,10.8312,10.8581,10.92,11.001,11.0204,11.0318,11.0782,11.1207,11.1517,11.1517,11.1785,11.2095,11.2095,11.2095,11.2095,11.2095,11.2095,11.2095,11.2095,11.1708,11.1285,11.0782,11.001,10.9393,10.8891,10.8198,10.7818,10.7907,10.7205,10.6982,10.7187,10.6406,10.6093,10.6093,10.5703,10.5508,9.1714,9.1714,9.1714,9.1714,9.1714,9.1944,9.2795,9.3058,0.0,0.0,9.5611,9.566,9.5536,0.0,9.4164,0.0,9.3076,9.271,0.0,0.0,0.0,0.0,0.0,0.0,0.0,0.0,0.0,0.0,0.0,0.0,9.9954,10.2119,10.3582,10.4512,10.4409,10.4786,10.5582,10.5609,10.6003,10.6597,10.6597,10.6597,10.6597,10.6597,10.6715,10.6895,10.6989,0.0,0.0,10.739,10.7405,10.7315,10.7512,10.7512,10.7592,10.8303,10.8608,10.8594,10.9304,10.95,10.95,10.95,10.8604,10.7512,10.7512,10.7512,10.7512,10.7504,10.75,10.75,10.75,10.8003,10.8585,10.8585,10.9007,10.9587,10.9701,10.9817,11.001,11.0898,11.1091,11.1285,11.2017,11.2095,11.2095,11.2095,11.2095,11.2095,11.2095,11.2095,11.2095,11.2095,11.2095,11.2095,11.2095,11.2095,11.1785,11.1091,11.0898,11.0513,10.9817,10.9009,10.8514,10.8492,10.7787,10.7513,10.7686,10.701,10.6791,10.6914,10.6289,10.6015,9.1714,9.1714,9.1714,9.1714,9.1714,9.1944,9.2795,0.0,0.0,9.5315,9.6122,9.6427,9.5624,0.0,0.0,0.0,0.0,9.3548,9.2519,9.3072,9.3339,9.2597,0.0,0.0,0.0,0.0,0.0,0.0,0.0,0.0,10.2486,10.3489,10.4388,10.5186,10.5286,10.5615,10.6315,10.6385,10.6397,10.6397,10.6397,10.6397,10.6397,10.6397,10.6913,10.7708,10.771,0.0,0.0,10.8996,10.898,10.9011,10.9091,10.9209,10.9209,10.9288,10.9402,10.9383,10.9501,10.9501,10.9501,10.9501,10.9389,10.9288,10.9288,10.9288,10.928,10.9288,10.9316,10.9316,10.9316,10.9314,10.9393,10.9393,10.9391,10.9701,11.0511,11.0706,11.0898,11.1785,11.2017,11.2017,11.2095,11.2095,11.2095,11.2095,11.2095,11.2095,11.2095,11.2095,11.2095,11.2095,11.2095,11.2095,11.2095,11.2095,11.2097,11.2017,11.1205,11.0784,11.0706,10.9817,10.9086,10.8317,10.8412,10.8009,10.7305,10.7393,10.7485,10.7695,10.7617,10.7695,9.1714,9.1714,9.1714,9.1714,9.1714,9.2062,9.3419,0.0,9.456,9.6002,9.6474,9.6378,9.5577,9.5393,9.5052,9.4118,9.4362,0.0,9.3346,9.3946,9.4371,9.4023,0.0,0.0,0.0,0.0,0.0,0.0,0.0,0.0,10.2682,10.3586,10.4415,10.5316,10.5792,10.6108,10.64,10.6397,10.6715,10.7193,10.7193,10.739,10.7906,10.7906,10.8103,10.8496,10.8513,0.0,0.0,10.9194,10.9186,10.9099,10.9217,10.9292,10.9497,11.001,11.0187,11.0397,11.0911,11.099,11.099,11.099,11.101,11.0681,10.9813,10.9497,10.9495,10.9519,10.9514,10.9519,10.9503,10.9894,11.0395,11.0898,11.1091,11.1207,11.1515,11.1594,11.1708,11.2017,11.2095,11.2095,11.2095,11.2095,11.2095,11.2095,11.2095,11.2095,11.2095,11.2095,11.2095,11.2095,11.2095,11.2095,11.2095,11.2095,11.2095,11.2095,11.1787,11.1594,11.1594,11.0704,11.0085,10.9817,10.9284,10.8714,10.7987,10.8089,10.7919,10.7603,10.7697,10.7812,9.1687,9.1696,9.1714,9.1714,9.1714,9.2062,0.0,0.0,9.4541,9.6083,9.6462,9.6387,9.5839,9.5682,9.5422,9.4754,9.5118,9.5162,9.4229,9.5023,9.5641,0.0,0.0,0.0,0.0,0.0,0.0,0.0,0.0,0.0,10.221,10.3283,10.4309,10.4898,10.5891,10.6397,10.6397,10.6913,10.739,10.8103,10.8111,10.8413,10.8891,10.8891,10.9009,10.9283,10.9404,0.0,0.0,10.9809,10.9888,10.9809,10.9888,11.0004,11.0085,11.071,11.099,11.1188,11.1818,11.1897,11.1918,11.2003,11.1886,11.1602,11.0501,11.0191,11.0202,11.0202,11.0202,11.0202,11.0202,11.0685,11.1315,11.1908,11.2017,11.2103,11.209,11.2114,11.2105,11.209,11.2095,11.2095,11.2095,11.2095,11.2095,11.2095,11.2095,11.2095,11.2095,11.2095,11.2095,11.2095,11.2095,11.2095,11.2095,11.2095,11.2095,11.2095,11.2095,11.2095,11.2095,11.1515,11.1091,11.0782,11.0204,10.9516,10.8797,10.8797,10.8488,10.7812,10.7887,10.7892,9.162,9.1657,9.1714,9.1714,9.1714,9.1944,0.0,0.0,9.4442,9.5245,9.6083,9.6677,9.6509,9.649,9.6463,9.6375,9.6398,9.6059,9.5118,9.6408,9.717,0.0,0.0,0.0,0.0,0.0,0.0,0.0,0.0,0.0,10.1281,10.2984,10.39,10.3916,10.5505,10.6397,10.6397,10.7985,10.8896,10.8896,10.8907,10.8898,10.8898,10.8898,10.9414,11.0207,0.0,0.0,0.0,11.1513,11.1513,11.1513,11.1513,11.1598,11.1616,11.168,11.1818,11.1818,11.1818,11.1818,11.1797,11.1787,11.1816,11.1791,11.1817,11.1787,11.1897,11.1818,11.1818,11.1916,11.1909,11.1993,11.2112,11.1907,11.1887,11.1909,11.2116,11.1988,11.1914,11.2116,11.2095,11.2095,11.2095,11.2095,11.2095,11.2095,11.2095,11.2095,11.2095,11.2095,11.2095,11.2095,11.2095,11.2095,11.2095,11.2095,11.2095,11.2095,11.2095,11.2095,11.2095,11.2095,11.1708,11.0782,11.0782,11.0397,10.9507,10.9507,10.9094,10.8498,10.8514,10.8215,9.176,9.1616,9.1635,9.1635,9.1677,9.1944,9.2795,0.0,9.4442,9.5243,9.6032,9.6545,9.6459,9.6385,9.6368,9.6338,9.6334,9.6245,0.0,0.0,0.0,9.6399,0.0,0.0,0.0,0.0,0.0,0.0,0.0,0.0,10.221,10.3292,10.4215,10.4705,10.6415,10.7593,10.8114,10.8589,10.9184,10.9818,10.9786,11.0089,11.0682,11.0682,11.0802,0.0,0.0,0.0,0.0,11.1513,11.1513,11.1513,11.1513,11.1596,11.1612,11.1597,11.1686,11.1804,11.1804,11.1686,11.1704,11.18,11.1691,11.1583,11.16,11.1696,11.1804,11.1804,11.1785,11.1803,11.1811,11.1913,11.1897,11.1789,11.1913,11.1894,11.2,11.1993,11.1983,11.209,11.2095,11.2095,11.2095,11.2095,11.2095,11.2095,11.2095,11.2095,11.2095,11.2095,11.2095,11.2095,11.2095,11.2095,11.2095,11.2095,11.2095,11.2095,11.2095,11.2095,11.2095,11.2095,11.2017,11.1708,11.1708,11.1285,11.0395,11.0395,11.0019,10.9418,10.8806,10.8481,0.0,9.1782,9.1598,9.1598,9.1635,0.0,0.0,0.0,9.435,9.5146,9.5899,9.6453,9.6358,9.6327,9.6285,9.6285,9.6285,0.0,0.0,0.0,0.0,0.0,0.0,0.0,0.0,0.0,0.0,0.0,0.0,0.0,10.3099,10.4482,10.5715,10.6485,10.7587,10.8388,10.8918,10.9591,11.0207,11.0682,11.0682,11.1,11.1513,11.1513,11.1513,0.0,0.0,0.0,0.0,11.1513,11.1513,11.1513,11.1513,11.1513,11.1596,11.1596,11.1596,11.1714,11.1714,11.1596,11.1596,11.1714,11.1596,11.1513,11.1513,11.1596,11.1714,11.1793,11.181,11.1683,11.1696,11.1797,11.1814,11.1804,11.1782,11.1886,11.2,11.1993,11.2017,11.209,11.2095,11.2095,11.2095,11.2095,11.2095,11.2095,11.2095,11.2095,11.2095,11.2095,11.2095,11.2095,11.2095,11.2095,11.2095,11.2095,11.2095,11.2095,11.2095,11.2095,11.2095,11.2095,11.2095,11.2095,11.2095,11.1785,11.1285,11.1016,11.0593,11.0216,10.941,10.9089,0.0,0.0,0.0,0.0,0.0,0.0,0.0,0.0,0.0,0.0,0.0,9.6369,9.6304,9.6285,9.6324,0.0,0.0,0.0,0.0,0.0,0.0,0.0,0.0,0.0,0.0,0.0,0.0,0.0,0.0,0.0,10.4217,10.6485,10.8213,10.8985,10.9101,10.9086,10.9086,11.0691,11.1513,11.1513,11.1513,11.1513,11.1513,11.1513,11.1513,0.0,0.0,0.0,0.0,11.1513,11.1513,11.1513,11.1513,11.1513,11.1513,11.1513,11.1513,11.1513,11.1513,11.1513,11.1513,11.1513,11.1513,11.1513,11.1513,11.1513,11.1513,11.1714,11.1714,11.1589,11.1607,11.1683,11.178,11.1809,11.1792,11.1809,11.1991,11.2014,11.1909,11.211,11.209,11.2095,11.2095,11.2095,11.2095,11.2095,11.2095,11.2095,11.2095,11.2095,11.2095,11.2095,11.2095,11.2095,11.2095,11.2095,11.2095,11.2095,11.2095,11.2095,11.2095,11.2095,11.2095,11.2095,11.2095,11.2095,11.2095,11.1285,11.0898,11.0898,11.0199,10.9896,0.0,0.0,0.0,0.0,9.3434,0.0,0.0,0.0,0.0,0.0,0.0,9.6369,9.6304,9.6285,0.0,0.0,0.0,0.0,0.0,0.0,0.0,0.0,0.0,0.0,0.0,0.0,0.0,0.0,0.0,10.4792,10.6713,10.7982,10.8985,10.9911,11.0491,11.0917,11.0917,11.1291,11.1513,11.1513,11.1513,11.1513,11.1513,11.1513,11.1513,0.0,0.0,0.0,11.1513,11.1513,11.1513,11.1513,11.1513,11.1513,11.1513,11.1513,11.1513,11.1513,11.1513,11.1513,11.1513,11.1513,11.1513,11.1513,11.1513,11.1513,11.1513,11.1596,11.1513,11.1486,11.1518,11.149,11.1613,11.1593,11.1584,11.1701,11.171,11.1792,11.1891,11.1912,11.201,11.2095,11.2095,11.2095,11.2095,11.2095,11.2095,11.2095,11.2095,11.2095,11.2095,11.2095,11.2095,11.2095,11.2095,11.2095,11.2095,11.2095,11.2095,11.2095,11.2095,11.2095,11.2095,11.2095,11.2095,11.2095,11.2095,11.1901,11.1787,11.1787,11.0896,11.0584,9.5618,9.451,9.3324,9.3332,9.3344,9.346,0.0,0.0,0.0,0.0,0.0,0.0,9.6295,0.0,0.0,0.0,0.0,0.0,0.0,0.0,0.0,0.0,0.0,0.0,0.0,0.0,0.0,0.0,0.0,10.6405,10.8216,10.8983,10.9908,11.0791,11.1288,11.1513,11.1513,11.1513,11.1513,11.1513,11.1513,11.1513,11.1513,11.1513,11.1513,0.0,0.0,11.1513,11.1513,11.1513,11.1513,11.1513,11.1513,11.1513,11.1513,11.1513,11.1513,11.1513,11.1513,11.1513,11.1513,11.1513,11.1513,11.1513,11.1513,11.1513,11.1513,11.1513,11.1513,11.1513,11.1513,11.1513,11.1491,11.1503,11.1604,11.1583,11.1711,11.1814,11.1895,11.1895,11.1896,11.1984,11.1988,11.1997,11.201,11.209,11.2095,11.2095,11.2095,11.2095,11.2095,11.2095,11.2095,11.2095,11.2095,11.2095,11.2095,11.2095,11.2095,11.2095,11.2095,11.2095,11.2095,11.2095,11.2095,11.2095,11.2095,11.2095,11.2095,11.2095,11.1592,11.1512,9.62,9.4525,9.2832,9.3117,9.307,9.3175,0.0,0.0,0.0,0.0,0.0,0.0,0.0,0.0,0.0,0.0,0.0,0.0,0.0,0.0,0.0,0.0,0.0,0.0,0.0,0.0,0.0,0.0,0.0,10.8213,10.9211,10.9985,11.0714,11.1516,11.1513,11.1513,11.1513,11.1513,11.1513,11.1513,11.1513,11.1513,11.1513,11.1513,11.1513,11.1513,0.0,0.0,11.1513,11.1513,11.1513,11.1513,11.1513,11.1513,11.1513,11.1513,11.1513,11.1513,11.1513,11.1513,11.1513,11.1513,11.1513,11.1513,11.1513,11.1513,11.1513,11.1513,11.1513,11.1513,11.1513,11.1513,11.1499,11.1599,11.1584,11.1607,11.1702,11.1814,11.1787,11.1787,11.1799,11.1799,11.1886,11.1902,11.1894,11.2101,11.2114,11.2082,11.2093,11.2095,11.2095,11.2095,11.2095,11.2095,11.2095,11.2095,11.2095,11.2095,11.2095,11.2095,11.2095,11.2095,11.2095,11.2095,11.2095,11.2095,11.2095,11.2095,11.2095,11.2095,11.2095,11.2095,9.5428,9.4391,9.3909,9.5415,9.5224,9.4853,0.0,0.0,0.0,0.0,0.0,0.0,0.0,0.0,0.0,0.0,0.0,0.0,0.0,0.0,0.0,0.0,0.0,0.0,0.0,0.0,0.0,0.0,0.0,10.8711,11.1016,11.1208,11.1401,11.1513,11.1513,11.1513,11.1513,11.1513,11.1513,11.1513,11.1513,11.1513,11.1513,11.1513,11.1513,11.1513,0.0,11.1513,11.1513,11.1513,11.1513,11.1513,11.1513,11.1513,11.1513,11.1513,11.1513,11.1513,11.1513,11.1513,11.1513,11.1513,11.1513,11.1513,11.1513,11.1513,11.1513,11.1513,11.1513,11.1513,11.1513,11.1513,11.148,11.1499,11.1502,11.1507,11.1485,11.1604,11.1594,11.1594,11.1707,11.1814,11.1792,11.1795,11.1792,11.1891,11.1905,11.2011,11.2086,11.2095,11.2095,11.2095,11.2095,11.2095,11.2095,11.2095,11.2095,11.2095,11.2095,11.2095,11.2095,11.2095,11.2095,11.2095,11.2095,11.2095,11.2095,11.2095,11.2095,11.2095,11.2095,11.2095,9.5826,9.5061,9.4613,9.5426,9.4636,9.3869,0.0,0.0,0.0,0.0,0.0,0.0,0.0,0.0,0.0,0.0,0.0,0.0,0.0,0.0,0.0,0.0,0.0,0.0,0.0,0.0,0.0,0.0,0.0,0.0,11.0714,11.0406,11.0288,11.0791,11.1288,11.1513,11.1513,11.1513,11.1513,11.1513,11.1513,11.1513,11.1513,11.1513,11.1513,11.1513,0.0,11.1513,11.1513,11.1513,11.1513,11.1513,11.1513,11.1513,11.1513,11.1513,11.1513,11.1513,11.1513,11.1513,11.1513,11.1513,11.1513,11.1513,11.1513,11.1513,11.1513,11.1513,11.1513,11.1513,11.1513,11.1513,11.1513,11.1513,11.1513,11.1513,11.1513,11.1518,11.1516,11.1516,11.1599,11.1612,11.1713,11.1685,11.1683,11.1789,11.1891,11.19,11.1982,11.2105,11.2095,11.2095,11.2095,11.2095,11.2095,11.2095,11.2095,11.2095,11.2095,11.2095,11.2095,11.2095,11.2095,11.2095,11.2095,11.2095,11.2095,11.2095,11.2095,11.2095,11.2095,11.2095,9.5749,9.5213,9.464,0.0,0.0,0.0,0.0,0.0,0.0,0.0,0.0,0.0,0.0,0.0,0.0,0.0,0.0,0.0,0.0,0.0,0.0,0.0,0.0,0.0,0.0,0.0,0.0,0.0,0.0,0.0,11.0488,10.9908,10.979,11.0486,11.1211,11.1513,11.1513,11.1513,11.1513,11.1513,11.1513,11.1513,11.1513,11.1513,11.1513,11.1513,11.1513,11.1513,11.1513,11.1513,11.1513,11.1513,11.1513,11.1513,11.1513,11.1513,11.1513,11.1513,11.1513,11.1513,11.1513,11.1513,11.1513,11.1513,11.1513,11.1513,11.1513,11.1513,11.1513,11.1513,11.1513,11.1513,11.1513,11.1513,11.1513,11.1513,11.1513,11.1513,11.1513,11.1513,11.1513,11.1504,11.1594,11.1609,11.1607,11.1717,11.1802,11.1793,11.1919,11.1984,11.2112,11.2093,11.2095,11.2095,11.2095,11.2095,11.2095,11.2095,11.2095,11.2095,11.2095,11.2095,11.2095,11.2095,11.2095,11.2095,11.2095,11.2095,11.2095,11.2095,11.2095,11.2095,9.41,9.3828,9.3599,0.0,0.0,0.0,0.0,0.0,0.0,0.0,0.0,0.0,0.0,0.0,0.0,0.0,0.0,0.0,0.0,0.0,0.0,0.0,0.0,0.0,0.0,0.0,0.0,0.0,0.0,0.0,11.1401,11.1283,11.1283,11.1401,11.1516,11.1513,11.1513,11.1513,11.1513,11.1513,11.1513,11.1513,11.1513,11.1513,11.1513,11.1513,11.1513,11.1513,11.1513,11.1513,11.1513,11.1513,11.1513,11.1513,11.1513,11.1513,11.1513,11.1513,11.1513,11.1513,11.1513,11.1513,11.1513,11.1513,11.1513,11.1513,11.1513,11.1513,11.1513,11.1513,11.1513,11.1513,11.1513,11.1513,11.1513,11.1513,11.1513,11.1513,11.1513,11.1513,11.1513,11.1519,11.1486,11.1488,11.149,11.1604,11.1586,11.1705,11.19,11.1891,11.2005,11.2086,11.2095,11.2095,11.2095,11.2095,11.2095,11.2095,11.2095,11.2095,11.2095,11.2095,11.2095,11.2095,11.2095,11.2095,11.2095,11.2095,11.2095,11.2095,11.2095,11.2095,9.4602,9.4525,9.4448,0.0,0.0,0.0,0.0,0.0,0.0,0.0,0.0,0.0,0.0,0.0,0.0,0.0,0.0,0.0,0.0,0.0,0.0,0.0,0.0,0.0,0.0,0.0,0.0,0.0,0.0,0.0,11.0716,11.0716,11.0716,11.0716,11.1211,11.1513,11.1513,11.1513,11.1513,11.1513,11.1513,11.1513,11.1513,11.1513,11.1513,11.1513,11.1513,11.1513,11.1513,11.1513,11.1513,11.1513,11.1513,11.1513,11.1513,11.1513,11.1513,11.1513,11.1513,11.1513,11.1513,11.1513,11.1513,11.1513,11.1513,11.1513,11.1513,11.1513,11.1513,11.1513,11.1513,11.1513,11.1513,11.1513,11.1513,11.1513,11.1513,11.1513,11.1513,11.1513,11.1513,11.1513,11.1513,11.1513,11.1491,11.1495,11.1602,11.1599,11.1683,11.179,11.1909,11.2005,11.2103,11.2095,11.2095,11.2095,11.2095,11.2095,11.2095,11.2095,11.2095,11.2095,11.2095,11.2095,11.2095,11.2095,11.2095,11.2095,11.2095,11.2095,11.2095,11.2095,9.4912,9.4989,9.4989,0.0,0.0,0.0,0.0,0.0,0.0,0.0,0.0,0.0,0.0,0.0,0.0,0.0,0.0,0.0,0.0,0.0,0.0,0.0,0.0,0.0,0.0,0.0,0.0,0.0,0.0,0.0,0.0,11.0601,11.0601,11.0601,11.1211,11.1513,11.1513,11.1513,11.1513,11.1513,11.1513,11.1513,11.1513,11.1513,11.1513,11.1513,11.1513,11.1513,11.1513,11.1513,11.1513,11.1513,11.1513,11.1513,11.1513,11.1513,11.1513,11.1513,11.1513,11.1513,11.1513,11.1513,11.1513,11.1513,11.1513,11.1513,11.1513,11.1513,11.1513,11.1513,11.1513,11.1513,11.1513,11.1513,11.1513,11.1513,11.1513,11.1513,11.1513,11.1513,11.1513,11.1513,11.1513,11.1513,11.1513,11.1513,11.1503,11.1607,11.1604,11.1713,11.1814,11.1912,11.2004,11.2095,11.2095,11.2095,11.2095,11.2095,11.2095,11.2095,11.2095,11.2095,11.2095,11.2095,11.2095,11.2095,11.2095,11.2095,11.2095,11.2095,11.2095,11.2095,9.4758,9.4989,0.0,0.0,0.0,0.0,0.0,0.0,0.0,0.0,0.0,0.0,0.0,0.0,0.0,0.0,0.0,0.0,0.0,0.0,0.0,0.0,0.0,0.0,0.0,0.0,0.0,0.0,0.0,0.0,0.0,11.1513,11.1513,11.1513,11.1513,11.1513,11.1513,11.1513,11.1513,11.1513,11.1513,11.1513,11.1513,11.1513,11.1513,11.1513,11.1513,11.1513,11.1513,11.1513,11.1513,11.1513,11.1513,11.1513,11.1513,11.1513,11.1513,11.1513,11.1513,11.1513,11.1513,11.1513,11.1513,11.1513,11.1513,11.1513,11.1513,11.1513,11.1513,11.1513,11.1513,11.1513,11.1513,11.1513,11.1513,11.1513,11.1513,11.1513,11.1513,11.1513,11.1513,11.1513,11.1513,11.1513,11.1513,11.1513,11.1513,11.1518,11.1594,11.1607,11.1692,11.1902,11.2002,11.2093,11.2095,11.2095,11.2095,11.2095,11.2095,11.2095,11.2095,11.2095,11.2095,11.2095,11.2095,11.2095,11.2095,11.2095,11.2095,11.2095,11.2095,11.2095,9.4758,0.0,0.0,0.0,0.0,0.0,0.0,0.0,0.0,0.0,0.0,0.0,0.0,0.0,0.0,0.0,0.0,0.0,0.0,0.0,0.0,0.0,0.0,0.0,0.0,0.0,0.0,0.0,11.1401,11.1513,11.1513,11.1513,11.1513,11.1513,11.1513,11.1513,11.1513,11.1513,11.1513,11.1513,11.1513,11.1513,11.1513,11.1513,11.1513,11.1513,11.1513,11.1513,11.1513,11.1513,11.1513,11.1513,11.1513,11.1513,11.1513,11.1513,11.1513,11.1513,11.1513,11.1513,11.1513,11.1513,11.1513,11.1513,11.1513,11.1513,11.1513,11.1513,11.1513,11.1513,11.1513,11.1513,11.1513,11.1513,11.1513,11.1513,11.1513,11.1513,11.1513,11.1513,11.1513,11.1513,11.1513,11.1513,11.1513,11.1513,11.1513,11.1488,11.1485,11.1599,11.1703,11.1802,11.1907,11.1991,11.209,11.2095,11.2095,11.2095,11.2095,11.2095,11.2095,11.2095,11.2095,11.2095,11.2095,11.2095,11.2095,11.2095,11.2095,11.2095,11.2095,11.2095,9.4871,0.0,0.0,0.0,0.0,0.0,0.0,0.0,0.0,0.0,0.0,0.0,0.0,0.0,0.0,0.0,0.0,0.0,0.0,0.0,10.61,10.7287,10.8598,0.0,11.0598,11.0714,11.0903,11.1516,11.1513,11.1513,11.1513,11.1513,11.1513,11.1513,11.1513,11.1513,11.1513,11.1513,11.1513,11.1513,11.1513,11.1513,11.1513,11.1513,11.1513,11.1513,11.1513,11.1513,11.1513,11.1513,11.1513,11.1513,11.1513,11.1513,11.1513,11.1513,11.1513,11.1513,11.1513,11.1513,11.1513,11.1513,11.1513,11.1513,11.1513,11.1513,11.1513,11.1513,11.1513,11.1513,11.1513,11.1513,11.1513,11.1513,11.1513,11.1513,11.1513,11.1513,11.1513,11.1513,11.1513,11.1513,11.1513,11.1513,11.1513,11.1513,11.1513,11.1513,11.1513,11.1617,11.1691,11.1799,11.1904,11.2,11.2088,11.2095,11.2095,11.2095,11.2095,11.2095,11.2095,11.2095,11.2095,11.2095,11.2095,11.2095,11.2095,11.2095,11.2095,11.2095,11.2095,11.2095,0.0,0.0,0.0,0.0,0.0,0.0,0.0,0.0,0.0,0.0,0.0,0.0,0.0,0.0,0.0,0.0,0.0,0.0,0.0,0.0,10.7092,10.879,10.9793,11.0598,11.1401,11.1513,11.1513,11.1513,11.1513,11.1513,11.1513,11.1513,11.1513,11.1513,11.1513,11.1513,11.1513,11.1513,11.1513,11.1513,11.1513,11.1513,11.1513,11.1513,11.1513,11.1513,11.1513,11.1513,11.1513,11.1513,11.1513,11.1513,11.1513,11.1513,11.1513,11.1513,11.1513,11.1513,11.1513,11.1513,11.1513,11.1513,11.1513,11.1513,11.1513,11.1513,11.1513,11.1513,11.1513,11.1513,11.1513,11.1513,11.1513,11.1513,11.1513,11.1513,11.1513,11.1513,11.1513,11.1513,11.1513,11.1513,11.1513,11.1513,11.1513,11.1513,11.1513,11.1513,11.1513,11.1606,11.1596,11.1785,11.1801,11.1898,11.2114,11.2084,11.2086,11.2095,11.2095,11.2095,11.2095,11.2095,11.2095,11.2095,11.2095,11.2095,11.2095,11.2095,11.2095,11.2095,11.2095,11.2095,0.0,0.0,0.0,0.0,0.0,0.0,0.0,0.0,0.0,0.0,0.0,0.0,0.0,0.0,0.0,0.0,0.0,0.0,0.0,0.0,0.0,10.9716,11.0714,11.1285,11.1513,11.1513,11.1513,11.1513,11.1513,11.1513,11.1513,11.1513,11.1513,11.1513,11.1513,11.1513,11.1513,11.1513,11.1513,11.1513,11.1513,11.1513,11.1513,11.1513,11.1513,11.1513,11.1513,11.1513,11.1513,11.1513,11.1513,11.1513,11.1513,11.1513,11.1513,11.1513,11.1513,11.1513,11.1513,11.1513,11.1513,11.1513,11.1513,11.1513,11.1513,11.1513,11.1513,11.1513,11.1513,11.1513,11.1513,11.1513,11.1513,11.1513,11.1513,11.1513,11.1513,11.1513,11.1513,11.1513,11.1513,11.1513,11.1513,11.1513,11.1513,11.1513,11.1513,11.1513,11.1513,11.1499,11.1598,11.1591,11.1703,11.1717,11.1898,11.1914,11.1984,11.209,11.2095,11.2095,11.2095,11.2095,11.2095,11.2095,11.2095,11.2095,11.2095,11.2095,11.2095,11.2095,11.2095,11.2095,0.0,0.0,0.0,0.0,0.0,0.0,0.0,0.0,0.0,0.0,0.0,0.0,0.0,0.0,0.0,0.0,0.0,0.0,0.0,0.0,0.0,11.0714,11.1208,11.1513,11.1513,11.1513,11.1513,11.1513,11.1513,11.1513,11.1513,11.1513,11.1513,11.1513,11.1513,11.1513,11.1513,11.1513,11.1513,11.1513,11.1513,11.1513,11.1513,11.1513,11.1513,11.1513,11.1513,11.1513,11.1513,11.1513,11.1513,11.1513,11.1513,11.1513,11.1513,11.1513,11.1513,11.1513,11.1513,11.1513,11.1513,11.1513,11.1513,11.1513,11.1513,11.1513,11.1513,11.1513,11.1513,11.1513,11.1513,11.1513,11.1513,11.1513,11.1513,11.1513,11.1513,11.1513,11.1513,11.1513,11.1513,11.1513,11.1513,11.1513,11.1513,11.1513,11.1513,11.1513,11.1513,11.1513,11.1482,11.1597,11.1607,11.1697,11.1907,11.1887,11.2002,11.209,11.2095,11.2095,11.2095,11.2095,11.2095,11.2095,11.2095,11.2095,11.2095,11.2095,11.2095,11.2095,11.2095,11.2095,0.0,0.0,0.0,0.0,0.0,0.0,0.0,0.0,0.0,0.0,0.0,0.0,0.0,0.0,0.0,10.3212,10.5095,10.69,10.7787,10.9213,11.0486,11.1401,11.1513,11.1513,11.1513,11.1513,11.1513,11.1513,11.1513,11.1513,11.1513,11.1513,11.1513,11.1513,11.1513,11.1513,11.1513,11.1513,11.1513,11.1513,11.1513,11.1513,11.1513,11.1513,11.1513,11.1513,11.1513,11.1513,11.1513,11.1513,11.1513,11.1513,11.1513,11.1513,11.1513,11.1513,11.1513,11.1513,11.1513,11.1513,11.1513,11.1513,11.1513,11.1513,11.1513,11.1513,11.1513,11.1513,11.1513,11.1513,11.1513,11.1513,11.1513,11.1513,11.1513,11.1513,11.1513,11.1513,11.1513,11.1513,11.1513,11.1513,11.1513,11.1513,11.1513,11.1513,11.1513,11.1513,11.1513,11.1513,11.1512,11.1609,11.162,11.1701,11.1818,11.1889,11.1898,11.2107,11.2086,11.2095,11.2095,11.2095,11.2095,11.2095,11.2095,11.2095,11.2095,11.2095,11.2095,11.2095,11.2095,11.2095,0.0,0.0,0.0,0.0,0.0,0.0,0.0,0.0,0.0,0.0,0.0,0.0,0.0,10.5018,10.5787,10.4907,10.629,10.7787,10.8598,10.9603,11.0486,11.1401,11.1513,11.1513,11.1513,11.1513,11.1513,11.1513,11.1513,11.1513,11.1513,11.1513,11.1513,11.1513,11.1513,11.1513,11.1513,11.1513,11.1513,11.1513,11.1513,11.1513,11.1513,11.1513,11.1513,11.1513,11.1513,11.1513,11.1513,11.1513,11.1513,11.1513,11.1513,11.1513,11.1513,11.1513,11.1513,11.1513,11.1513,11.1513,11.1513,11.1513,11.1513,11.1513,11.1513,11.1513,11.1513,11.1513,11.1513,11.1513,11.1513,11.1513,11.1513,11.1513,11.1513,11.1513,11.1513,11.1513,11.1513,11.1513,11.1513,11.1513,11.1513,11.1513,11.1513,11.1513,11.1513,11.1513,11.1513,11.1513,11.148,11.1496,11.1499,11.1514,11.1601,11.17,11.1796,11.1898,11.2015,11.2095,11.2095,11.2095,11.2095,11.2095,11.2095,11.2095,11.2095,11.2095,11.2095,11.2095,11.2095,11.2095,9.7634,0.0,0.0,0.0,0.0,0.0,0.0,0.0,0.0,0.0,10.4294,10.4602,10.4602,10.5597,10.6285,10.5905,10.729,10.8713,10.9485,11.0406,11.1096,11.1516,11.1513,11.1513,11.1513,11.1513,11.1513,11.1513,11.1513,11.1513,11.1513,11.1513,11.1513,11.1513,11.1513,11.1513,11.1513,11.1513,11.1513,11.1513,11.1513,11.1513,11.1513,11.1513,11.1513,11.1513,11.1513,11.1513,11.1513,11.1513,11.1513,11.1513,11.1513,11.1513,11.1513,11.1513,11.1513,11.1513,11.1513,11.1513,11.1513,11.1513,11.1513,11.1513,11.1513,11.1513,11.1513,11.1513,11.1513,11.1513,11.1513,11.1513,11.1513,11.1513,11.1513,11.1513,11.1513,11.1513,11.1513,11.1513,11.1513,11.1513,11.1513,11.1513,11.1513,11.1513,11.1513,11.1513,11.1513,11.1513,11.1513,11.1513,11.1513,11.1485,11.1599,11.1693,11.1713,11.1914,11.2,11.2006,11.2093,11.2095,11.2095,11.2095,11.2095,11.2095,11.2095,11.2095,11.2095,11.2095,11.2095,11.2095,0.0,0.0,9.8175,9.8175,9.8637,9.9409,0.0,0.0,10.3212,0.0,10.491,10.5405,10.5405,10.6095,10.6708,10.6708,10.8095,10.9485,11.0103,11.0983,11.1513,11.1513,11.1513,11.1513,11.1513,11.1513,11.1513,11.1513,11.1513,11.1513,11.1513,11.1513,11.1513,11.1513,11.1513,11.1513,11.1513,11.1513,11.1513,11.1513,11.1513,11.1513,11.1513,11.1513,11.1513,11.1513,11.1513,11.1513,11.1513,11.1513,11.1513,11.1513,11.1513,11.1513,11.1513,11.1513,11.1513,11.1513,11.1513,11.1513,11.1513,11.1513,11.1513,11.1513,11.1513,11.1513,11.1513,11.1513,11.1513,11.1513,11.1513,11.1513,11.1513,11.1513,11.1513,11.1513,11.1513,11.1513,11.1513,11.1513,11.1513,11.1513,11.1513,11.1513,11.1513,11.1513,11.1513,11.1513,11.1513,11.1513,11.1513,11.1513,11.1513,11.151,11.1596,11.1591,11.1718,11.1799,11.1911,11.1889,11.198,11.1983,11.2112,11.2095,11.2095,11.2095,11.2095,11.2095,11.2095,11.2095,11.2095,11.2095,0.0,9.995,0.0,9.995,9.999,0.0,0.0,0.0,10.4102,10.491,10.571,10.6285,10.6285,10.7015,10.7595,10.7595,10.8985,11.0103,11.0219,11.0983,11.1513,11.1513,11.1513,11.1513,11.1513,11.1513,11.1513,11.1513,11.1513,11.1513,11.1513,11.1513,11.1513,11.1513,11.1513,11.1513,11.1513,11.1513,11.1513,11.1513,11.1513,11.1513,11.1513,11.1513,11.1513,11.1513,11.1513,11.1513,11.1513,11.1513,11.1513,11.1513,11.1513,11.1513,11.1513,11.1513,11.1513,11.1513,11.1513,11.1513,11.1513,11.1513,11.1513,11.1513,11.1513,11.1513,11.1513,11.1513,11.1513,11.1513,11.1513,11.1513,11.1513,11.1513,11.1513,11.1513,11.1513,11.1513,11.1513,11.1513,11.1513,11.1513,11.1513,11.1513,11.1513,11.1513,11.1513,11.1513,11.1513,11.1513,11.1513,11.1513,11.1513,11.1516,11.1486,11.1586,11.1612,11.1586,11.1683,11.1787,11.1889,11.1894,11.2011,11.2093,11.2095,11.2095,11.2095,11.2095,11.2095,11.2095,11.2095,11.2095,0.0,0.0,0.0,10.0904,10.0904,10.1286,10.2981,10.3715,10.41,10.491,10.579,10.6397,10.6397,10.7092,10.7905,10.8406,10.9408,11.0409,11.0983,11.1285,11.1513,11.1513,11.1513,11.1513,11.1513,11.1513,11.1513,11.1513,11.1513,11.1513,11.1513,11.1513,11.1513,11.1513,11.1513,11.1513,11.1513,11.1513,11.1513,11.1513,11.1991,11.2307,11.2307,11.2785,11.3101,11.3101,11.3101,11.2508,11.1513,11.1513,11.1513,11.1513,11.1513,11.1513,11.1513,11.1513,11.1513,11.1513,11.1513,11.1513,11.1513,11.1513,11.1513,11.1513,11.1513,11.1513,11.1513,11.1513,11.1513,11.1513,11.1513,11.1513,11.1513,11.1513,11.1513,11.1513,11.1513,11.1513,11.1513,11.1513,11.1513,11.1513,11.1513,11.1513,11.1513,11.1513,11.1513,11.1513,11.1513,11.1513,11.1513,11.1513,11.1513,11.1513,11.1513,11.1515,11.1609,11.1604,11.1606,11.1717,11.1785,11.1891,11.19,11.2011,11.2105,11.2095,11.2095,11.2095,11.2095,11.2095,11.2095,11.2095,10.0596,0.0,0.0,0.0,10.1515,10.2092,10.3599,10.4102,10.4484,10.5407,10.6018,10.6515,10.6785,10.7516,10.829,10.879,10.9908,11.0788,11.1401,11.1513,11.1513,11.1513,11.1513,11.1513,11.1513,11.1513,11.1513,11.1513,11.1513,0.0,11.1513,11.1513,11.1513,11.1513,11.1513,11.1513,11.1513,11.1513,11.1596,11.1912,11.2389,11.2887,11.3211,11.3689,11.4005,11.4005,11.4005,11.339,11.2307,11.2307,11.2307,11.2307,11.2307,11.2307,11.2307,11.2307,11.2189,11.1912,11.1912,11.1714,11.1513,11.1513,11.1513,11.1513,11.1513,11.1513,11.1513,11.1513,11.1513,11.1513,11.1513,11.1513,11.1513,11.1513,11.1513,11.1513,11.1513,11.1513,11.1513,11.1513,11.1513,11.1513,11.1513,11.1513,11.1513,11.1513,11.1513,11.1513,11.1513,11.1513,11.1513,11.1513,11.1513,11.1513,11.1513,11.1513,11.151,11.1586,11.1591,11.1604,11.1712,11.1785,11.1815,11.1884,11.1982,11.2105,11.2095,11.2095,11.2095,11.2095,11.2095,11.2095,0.0,0.0,0.0,0.0,0.0,0.0,10.3792,10.4602,10.541,10.6287,10.6397,10.6708,10.7516,10.8406,10.8906,10.8903,11.0403,11.1513,11.1513,11.1513,11.1513,11.1513,11.1513,11.1513,11.1513,11.1513,11.1513,11.1513,11.1513,11.1513,11.1513,11.1513,11.1513,11.1513,11.1513,11.1513,11.1513,11.1513,11.1909,11.2705,11.2782,11.3206,11.3991,11.4109,11.4109,11.4109,11.4109,11.4085,11.409,11.401,11.401,11.401,11.401,11.401,11.401,11.401,11.3494,11.2703,11.2703,11.2189,11.1596,11.1596,11.1596,11.1596,11.1596,11.1596,11.1596,11.1593,11.1593,11.1593,11.1593,11.1593,11.1513,11.1513,11.1513,11.1513,11.1513,11.1513,11.1513,11.1513,11.1513,11.1513,11.1513,11.1513,11.1513,11.1513,11.1513,11.1513,11.1513,11.1513,11.1513,11.1513,11.1513,11.1513,11.1513,11.1513,11.1513,11.1513,11.1513,11.1487,11.1599,11.1607,11.1707,11.1912,11.1919,11.2002,11.2086,11.2093,11.2095,11.2095,11.2095,11.2095,10.2094,0.0,0.0,0.0,0.0,0.0,10.629,10.579,10.5487,10.7018,10.6782,10.6708,10.7516,10.8406,10.9098,10.9716,11.0791,11.1513,11.1513,11.1513,11.1513,11.1513,11.1513,11.1513,11.1513,11.1513,11.1513,0.0,11.1513,11.1513,11.1513,11.1513,11.1513,11.1513,11.1513,11.1513,11.1513,11.2085,11.2483,11.2705,11.3986,11.4692,11.4983,11.55,11.5816,11.5816,11.5816,11.5792,11.5696,11.4506,11.3992,11.3992,11.3992,11.3992,11.3992,11.3992,11.3794,11.3604,11.3596,11.3499,11.3299,11.3299,11.3299,11.3299,11.3299,11.3299,11.3293,11.3299,11.3288,11.3288,11.3288,11.2786,11.2404,11.2404,11.1901,11.1513,11.1513,11.1513,11.1513,11.1513,11.1513,11.1513,11.1513,11.1513,11.1513,11.1513,11.1513,11.1513,11.1513,11.1513,11.1513,11.1513,11.1513,11.1513,11.1513,11.1513,11.1513,11.1513,11.1513,11.1491,11.1485,11.1604,11.1596,11.17,11.1814,11.1789,11.1892,11.1991,11.2095,11.2095,11.2095,11.2095,0.0,0.0,0.0,0.0,0.0,0.0,10.6787,10.6403,10.6018,10.7403,10.7015,10.6708,10.7516,10.8406,10.9216,11.0103,11.0903,11.1513,11.1513,11.1513,11.1513,11.1513,11.1513,11.1513,11.1513,11.1513,11.1513,11.1513,11.1513,11.1513,11.1513,11.1513,11.1513,11.1513,11.1513,11.1513,11.1513,11.2313,11.2898,11.331,11.4582,11.55,11.5816,11.6292,11.6492,11.6492,11.6492,11.6492,11.641,11.5382,11.4983,11.4983,11.4983,11.4983,11.4983,11.4983,11.4785,11.4513,11.4492,11.4313,11.3994,11.3994,11.3994,11.3994,11.3994,11.3994,11.3989,11.4003,11.4006,11.3984,11.3984,11.3596,11.3211,11.3211,11.2904,11.2516,11.2516,11.2516,11.2285,11.159,11.1513,11.1513,11.1513,11.1513,11.1513,11.1513,11.1513,11.1513,11.1513,11.1513,11.1513,11.1513,11.1513,11.1513,11.1513,11.1513,11.1513,11.1513,11.1513,11.1513,11.1513,11.1503,11.1599,11.1607,11.1711,11.1688,11.1809,11.1889,11.198,11.2095,11.2095,11.2095,0.0,0.0,0.0,0.0,0.0,0.0,10.6403,10.6513,10.6785,10.7713,10.7208,10.6898,10.7787,10.86,10.929,11.0216,11.0983,11.1513,11.1513,11.1513,11.1513,11.1513,11.1513,11.1513,11.1513,11.1513,11.1513,11.1513,11.1513,11.1513,11.1513,11.1513,11.1513,11.1513,11.1513,11.1513,11.159,11.239,11.3319,11.4181,11.5006,11.5816,11.6492,11.6492,11.6492,11.6492,11.6492,11.6492,11.6492,11.6492,11.6492,11.6492,11.6492,11.6492,11.6492,11.6492,11.6014,11.5382,11.5382,11.4904,11.4307,11.4307,11.4307,11.4307,11.4307,11.4307,11.4307,11.4307,11.4299,11.4294,11.4294,11.4214,11.4099,11.4099,11.4102,11.3984,11.3984,11.3984,11.3599,11.2093,11.1785,11.1785,11.1785,11.1785,11.1785,11.1785,11.1785,11.1785,11.1785,11.1708,11.159,11.159,11.1593,11.1513,11.1513,11.1513,11.1513,11.1513,11.1513,11.1513,11.1513,11.1513,11.1485,11.1589,11.1589,11.1686,11.1792,11.1909,11.2005,11.2082,11.209,11.2095,0.0,0.0,0.0,0.0,0.0,0.0,10.7403,10.7403,10.7711,10.8482,10.848,10.8713,10.9603,10.9793,11.0216,11.1096,11.1401,11.1513,11.1513,11.1513,11.1513,11.1513,11.1513,11.1513,11.1513,11.1513,11.1513,11.1513,11.1513,11.1513,11.1513,11.1513,11.1513,11.1513,11.1513,11.1785,11.2519,11.3286,11.4184,11.5094,11.5918,11.6292,11.6492,11.6492,11.6492,11.6492,11.6492,11.6492,11.6492,11.6492,11.6492,11.6492,11.6492,11.6492,11.6492,11.6492,11.641,11.6292,11.6292,11.6212,11.6014,11.6014,11.6014,11.6014,11.6014,11.6014,11.6014,11.6014,11.5984,11.5989,11.5989,11.5489,11.4986,11.4986,11.4486,11.3984,11.3984,11.3984,11.3907,11.3599,11.3483,11.3483,11.3483,11.3483,11.3483,11.3483,11.3483,11.3483,11.3483,11.2904,11.2519,11.2519,11.1901,11.1513,11.1513,11.1513,11.1513,11.1513,11.1513,11.1513,11.1513,11.1513,11.1486,11.151,11.151,11.1606,11.1601,11.1796,11.1894,11.1914,11.1983,11.2095,0.0,0.0,0.0,10.7015,0.0,0.0,0.0,10.7403,10.7403,10.8595,10.8211,10.7903,10.879,10.9293,10.9716,11.0096,11.0901,11.1513,11.1513,11.1513,11.1513,11.1513,11.1513,11.1513,11.1513,11.1513,11.1513,11.1513,11.1513,11.1513,11.1513,11.1513,11.1513,11.1513,11.1513,11.1901,11.2709,11.3599,11.4418,11.5292,11.6116,11.6492,11.6492,11.6492,11.6492,11.6492,11.6492,11.6492,11.6492,11.6492,11.6492,11.6492,11.6492,11.6492,11.6492,11.6492,11.6492,11.6492,11.6492,11.6492,11.6492,11.6492,11.6492,11.6492,11.6492,11.6492,11.6492,11.6492,11.6492,11.6492,11.6492,11.6182,11.5913,11.5913,11.5605,11.5217,11.5217,11.5217,11.5217,11.5217,11.5217,11.4986,11.4099,11.3984,11.3984,11.3984,11.3984,11.3984,11.3984,11.3596,11.3211,11.2709,11.2285,11.1901,11.1513,11.1513,11.1513,11.1513,11.1513,11.1513,11.1513,11.1513,11.1513,11.1513,11.1901,11.2084,11.2101,11.2309,11.2209,11.1887,11.2009,11.2015,0.0,0.0,0.0,0.0,0.0,10.7713,0.0,0.0,0.0,10.8406,10.7711,10.7092,10.7787,10.8482,10.879,10.8713,11.0096,11.1211,11.1016,11.1285,11.1513,11.1513,11.1513,11.1513,11.1513,11.159,11.1708,11.1513,11.159,11.1708,11.1513,11.1513,11.1513,11.1513,11.1513,11.2016,11.2901,11.3596,11.4495,11.5514,11.619,11.6492,11.6492,11.6492,11.6492,11.6492,11.6492,11.6492,11.6492,11.6492,11.6492,11.6492,11.6492,11.6492,11.6492,11.6492,11.6492,11.6492,11.6492,11.6492,11.6492,11.6492,11.6492,11.6492,11.6492,11.6492,11.6492,11.6492,11.6492,11.6492,11.6492,11.6492,11.6492,11.6492,11.6492,11.6492,11.6492,11.6492,11.6492,11.6492,11.6492,11.6108,11.4717,11.4486,11.4486,11.4486,11.4486,11.4486,11.4486,11.4291,11.3907,11.3016,11.2786,11.2401,11.1593,11.1513,11.1513,11.1513,11.1513,11.1513,11.1513,11.159,11.1785,11.2016,11.2593,11.2981,11.2981,11.3113,11.28,11.2099,11.1984,11.2002,0.0,0.0,0.0,0.0,10.7092,0.0,0.0,0.0,10.7595,10.7787,0.0,0.0,0.0,0.0,0.0,10.7982,10.9213,11.0103,10.929,11.0516,11.1513,11.1513,11.1513,11.1513,11.1513,11.209,11.2285,11.1593,11.2209,11.2285,11.1513,11.1513,11.1513,11.1513,11.1513,11.2288,11.3791,11.3986,11.4794,11.6383,11.6492,11.6492,11.6492,11.6492,11.6492,11.6492,11.6492,11.6492,11.6492,11.6492,11.6492,11.6492,11.6492,11.6492,11.6492,11.6492,11.6492,11.6492,11.6492,11.6492,11.6492,11.6492,11.6492,11.6492,11.6492,11.6492,11.6492,11.6492,11.6492,11.6492,11.6492,11.6492,11.6492,11.6492,11.6492,11.6492,11.6492,11.6492,11.6492,11.6492,11.6492,11.6413,11.6182,11.6182,11.6182,11.6182,11.6182,11.6182,11.6182,11.5605,11.4794,11.3907,11.3211,11.2401,11.1593,11.1513,11.1513,11.1513,11.1513,11.1513,11.1513,11.2209,11.2904,11.3714,11.3791,11.3907,11.3907,11.3882,11.3493,11.2809,11.2187,11.1891,0.0,0.0,0.0,0.0,0.0,0.0,0.0,0.0,10.7092,0.0,0.0,0.0,0.0,0.0,0.0,0.0,10.9098,10.9911,10.8983,10.9983,11.0903,11.1398,11.1513,11.1513,11.1513,11.2209,11.2404,11.1593,11.2209,11.2285,11.1513,11.1513,11.1513,11.1513,11.1513,11.2285,11.3984,11.3984,11.4794,11.6492,11.6492,11.6492,11.6492,11.6492,11.6492,11.6492,11.6492,11.6492,11.6492,11.6492,11.6492,11.6492,11.6492,11.6492,11.6492,11.6492,11.6492,11.6492,11.6492,11.6492,11.6492,11.6492,11.6492,11.6492,11.6492,11.6492,11.6492,11.6492,11.6492,11.6492,11.6492,11.6492,11.6492,11.6492,11.6492,11.6492,11.6492,11.6492,11.6492,11.6492,11.6492,11.6492,11.6492,11.6492,11.6492,11.6492,11.6492,11.6492,11.6492,11.6182,11.5685,11.4794,11.3984,11.3096,11.2285,11.1785,11.1513,11.1513,11.1901,11.2209,11.2209,11.2981,11.3596,11.3984,11.4486,11.4794,11.4794,11.4794,11.4588,11.4293,11.3487,11.3317,10.7482,0.0,0.0,0.0,0.0,0.0,0.0,0.0,0.0,0.0,0.0,0.0,0.0,0.0,0.0,0.0,0.0,10.9485,10.8713,10.9293,11.0216,11.1016,11.1401,11.1513,11.1513,11.2401,11.2593,11.1593,11.2519,11.2593,11.1593,11.1513,11.1513,11.1513,11.1513,11.2285,11.3984,11.3984,11.4794,11.6492,11.6492,11.6492,11.6492,11.6492,11.6492,11.6492,11.6492,11.6492,11.6492,11.6492,11.6492,11.6492,11.6492,11.6492,11.6492,11.6492,11.6492,11.6492,11.6492,11.6492,11.6492,11.6492,11.6492,11.6492,11.6492,11.6492,11.6492,11.6492,11.6492,11.6492,11.6492,11.6492,11.6492,11.6492,11.6492,11.6492,11.6492,11.6492,11.6492,11.6492,11.6492,11.6492,11.6492,11.6492,11.6492,11.6492,11.6492,11.6492,11.6492,11.6492,11.6182,11.5412,11.4717,11.3907,11.2788,11.2209,11.1706,11.1513,11.2014,11.2593,11.3016,11.3714,11.4214,11.4717,11.5294,11.5605,11.5605,11.5605,11.5605,11.5608,11.4605,11.4201,0.0,0.0,0.0,0.0,0.0,0.0,0.0,0.0,10.7713,0.0,0.0,0.0,0.0,0.0,0.0,0.0,0.0,0.0,0.0,10.8406,0.0,0.0,0.0,0.0,11.1513,11.2981,11.3291,11.159,11.2981,11.3211,11.1593,11.1513,11.1513,11.1513,11.1513,11.2285,11.3984,11.3984,11.4794,11.6492,11.6492,11.6492,11.6492,11.6492,11.6492,11.6492,11.6492,11.6492,11.6492,11.6492,11.6492,11.6492,11.6492,11.6492,11.6492,11.6492,11.6492,11.6492,11.6492,11.6492,11.6492,11.6492,11.6492,11.6492,11.6492,11.6492,11.6492,11.6492,11.6492,11.6492,11.6492,11.6492,11.6492,11.6492,11.6492,11.6492,11.6492,11.6492,11.6492,11.6492,11.6492,11.6492,11.6492,11.6492,11.6492,11.6492,11.6492,11.6492,11.6492,11.6492,11.6182,11.5412,11.5297,11.4602,11.2786,11.2709,11.2285,11.1513,11.1513,11.2288,11.3907,11.3984,11.4794,11.6415,11.6413,11.6492,11.6492,11.6492,11.6492,11.6415,11.4795,11.4119,0.0,0.0,10.8482,10.8482,0.0,0.0,0.0,0.0,0.0,0.0,0.0,0.0,0.0,0.0,10.8713,0.0,0.0,10.9293,0.0,10.7903,0.0,0.0,0.0,0.0,11.1398,11.2981,11.3288,11.159,11.3599,11.3907,11.159,11.2016,11.2093,11.1513,11.1513,11.2285,11.3984,11.3984,11.4794,11.6492,11.6492,11.6492,11.6492,11.6492,11.6492,11.6492,11.6492,11.6492,11.6492,11.6492,11.6492,11.6492,11.6492,11.6492,11.6492,11.6492,11.6492,11.6492,11.6492,11.6492,11.6492,11.6492,11.6492,11.6492,11.6492,11.6492,11.6492,11.6492,11.6492,11.6492,11.6492,11.6492,11.6492,11.6492,11.6492,11.6492,11.6492,11.6492,11.6492,11.6492,11.6492,11.6492,11.6492,11.6492,11.6492,11.6492,11.6492,11.6492,11.6492,11.6492,11.6415,11.6105,11.5605,11.4794,11.3714,11.2516,11.1785,11.1513,11.2016,11.2516,11.3096,11.4214,11.5102,11.5682,11.6182,11.6492,11.6492,11.6492,11.6492,11.6492,11.5913,11.5703,10.9293,10.9408,0.0,10.9408,10.8985,0.0,0.0,0.0,0.0,0.0,0.0,0.0,0.0,0.0,0.0,10.8983,10.9408,10.9216,0.0,10.779,0.0,0.0,0.0,0.0,0.0,11.2519,11.2788,11.2016,11.3404,11.3791,11.2481,11.2593,11.2519,11.1901,11.159,11.2285,11.3984,11.3984,11.4794,11.6492,11.6492,11.6492,11.6492,11.6492,11.6492,11.6492,11.6492,11.6492,11.6492,11.6492,11.6492,11.6492,11.6492,11.6492,11.6492,11.6492,11.6492,11.6492,11.6492,11.6492,11.6492,11.6492,11.6492,11.6492,11.6492,11.6492,11.6605,11.73,11.699,11.6605,11.7297,11.699,11.6492,11.6492,11.6492,11.6492,11.6492,11.6492,11.6492,11.6492,11.6492,11.6492,11.6492,11.6492,11.6492,11.6492,11.6492,11.6492,11.6492,11.6492,11.6492,11.6492,11.5989,11.5297,11.4099,11.2709,11.1785,11.1513,11.2016,11.2401,11.2709,11.3791,11.4794,11.5682,11.5992,11.6413,11.6987,11.6685,11.6492,11.6492,11.6492,11.6493]},{"header":{"parameterUnit":"m.s-1","parameterCategory":1,"la1":30.6,"la2":29.2853,"lo1":-89.7004,"lo2":-87.6739,"dy":0.0162,"dx":0.0183,"nx":112,"ny":82,"refTime":"2023-03-15T00:00:00:Z","depth":0,"parameterNumber":3,"parameterNumberName":"V-component_of_WINDS"},"data":[0.0,0.0,0.0,0.0,0.0,0.0,0.0,0.0,0.0,0.0,0.0,0.0,0.0,0.0,0.0,0.0,0.0,0.0,0.0,0.0,0.0,0.0,0.0,0.0,0.0,0.0,0.0,0.0,0.0,0.0,0.0,0.0,0.0,0.0,0.0,0.0,0.0,0.0,0.0,0.0,0.0,0.0,0.0,0.0,0.0,0.0,0.0,0.0,0.0,0.0,0.0,0.0,0.0,0.0,0.0,0.0,0.0,0.0,0.0,0.0,0.0,0.0,0.0,0.0,0.0,0.0,0.0,0.0,0.0,0.0,0.0,0.0,0.0,0.0,0.0,0.0,0.0,0.0,0.0,0.0,0.0,0.0,0.0,0.0,0.0,0.0,0.0,0.0,0.0,0.0,0.0,0.0,0.0,0.0,0.0,0.0,0.0,0.0,0.0,0.0,0.0,0.0,0.0,0.0,0.0,0.0,0.0,0.0,0.0,0.0,0.0,0.0,0.0,0.0,0.0,0.0,0.0,0.0,0.0,0.0,0.0,0.0,0.0,0.0,0.0,0.0,0.0,0.0,0.0,0.0,0.0,0.0,0.0,0.0,0.0,0.0,0.0,0.0,0.0,0.0,0.0,0.0,0.0,0.0,0.0,0.0,0.0,0.0,0.0,0.0,0.0,0.0,0.0,0.0,0.0,0.0,0.0,0.0,0.0,0.0,0.0,0.0,0.0,0.0,0.0,0.0,0.0,0.0,0.0,0.0,0.0,0.0,0.0,0.0,0.0,0.0,0.0,0.0,0.0,0.0,0.0,0.0,0.0,0.0,0.0,0.0,0.0,0.0,0.0,0.0,0.0,0.0,0.0,0.0,0.0,0.0,0.0,0.0,0.0,0.0,0.0,0.0,0.0,0.0,0.0,0.0,0.0,0.0,0.0,0.0,0.0,0.0,0.0,0.0,0.0,0.0,0.0,0.0,0.0,0.0,0.0,0.0,0.0,0.0,0.0,0.0,0.0,0.0,0.0,0.0,0.0,0.0,0.0,0.0,0.0,0.0,0.0,0.0,0.0,0.0,0.0,0.0,0.0,0.0,0.0,0.0,0.0,0.0,0.0,0.0,0.0,0.0,0.0,0.0,0.0,0.0,0.0,0.0,0.0,0.0,0.0,0.0,0.0,0.0,0.0,0.0,0.0,0.0,0.0,0.0,0.0,0.0,0.0,0.0,0.0,0.0,0.0,0.0,0.0,0.0,0.0,0.0,0.0,0.0,0.0,0.0,0.0,0.0,0.0,0.0,0.0,0.0,0.0,0.0,0.0,0.0,0.0,0.0,0.0,0.0,0.0,0.0,0.0,0.0,0.0,0.0,0.0,0.0,0.0,0.0,0.0,0.0,0.0,0.0,0.0,0.0,0.0,0.0,0.0,0.0,0.0,0.0,0.0,0.0,0.0,0.0,0.0,0.0,0.0,0.0,0.0,0.0,0.0,0.0,0.0,0.0,0.0,0.0,0.0,0.0,0.0,0.0,0.0,0.0,0.0,0.0,0.0,0.0,0.0,0.0,0.0,0.0,0.0,0.0,0.0,0.0,0.0,0.0,0.0,0.0,0.0,0.0,0.0,0.0,0.0,0.0,0.0,0.0,0.0,0.0,0.0,0.0,0.0,0.0,0.0,0.0,0.0,0.0,0.0,0.0,0.0,0.0,0.0,0.0,0.0,0.0,0.0,0.0,0.0,0.0,0.0,0.0,0.0,0.0,0.0,0.0,0.0,0.0,0.0,0.0,0.0,0.0,0.0,0.0,0.0,0.0,0.0,0.0,0.0,0.0,0.0,0.0,0.0,0.0,0.0,0.0,0.0,0.0,0.0,0.0,0.0,0.0,0.0,0.0,0.0,0.0,0.0,0.0,0.0,0.0,0.0,0.0,0.0,0.0,0.0,0.0,0.0,0.0,0.0,0.0,0.0,0.0,0.0,0.0,0.0,0.0,0.0,0.0,0.0,0.0,0.0,0.0,0.0,0.0,0.0,0.0,0.0,0.0,0.0,0.0,0.0,0.0,0.0,0.0,0.0,0.0,0.0,0.0,0.0,0.0,0.0,0.0,0.0,0.0,0.0,0.0,0.0,0.0,0.0,0.0,0.0,0.0,0.0,0.0,0.0,0.0,0.0,0.0,0.0,0.0,0.0,0.0,0.0,0.0,0.0,0.0,0.0,0.0,0.0,0.0,0.0,0.0,0.0,0.0,0.0,0.0,0.0,0.0,0.0,0.0,0.0,0.0,0.0,0.0,0.0,0.0,0.0,0.0,0.0,0.0,0.0,0.0,0.0,0.0,0.0,0.0,0.0,0.0,0.0,0.0,0.0,0.0,0.0,0.0,0.0,0.0,0.0,0.0,0.0,0.0,0.0,0.0,0.0,0.0,0.0,0.0,0.0,0.0,0.0,0.0,0.0,0.0,0.0,0.0,0.0,0.0,0.0,0.0,0.0,0.0,0.0,0.0,0.0,0.0,0.0,0.0,0.0,0.0,0.0,0.0,0.0,0.0,0.0,0.0,0.0,0.0,0.0,0.0,0.0,0.0,0.0,0.0,0.0,0.0,0.0,0.0,0.0,0.0,0.0,0.0,0.0,0.0,0.0,0.0,0.0,0.0,0.0,0.0,0.0,0.0,0.0,0.0,0.0,0.0,0.0,0.0,0.0,0.0,0.0,0.0,0.0,0.0,0.0,0.0,0.0,0.0,0.0,0.0,0.0,0.0,0.0,0.0,0.0,0.0,0.0,0.0,0.0,0.0,0.0,0.0,0.0,0.0,0.0,0.0,0.0,0.0,0.0,0.0,0.0,0.0,0.0,0.0,0.0,0.0,0.0,0.0,0.0,0.0,0.0,0.0,0.0,0.0,0.0,0.0,0.0,0.0,0.0,0.0,0.0,0.0,0.0,0.0,0.0,0.0,0.0,0.0,0.0,0.0,0.0,0.0,0.0,0.0,0.0,0.0,0.0,0.0,0.0,0.0,0.0,0.0,0.0,0.0,0.0,0.0,0.0,0.0,0.0,0.0,0.0,0.0,0.0,0.0,0.0,0.0,0.0,0.0,0.0,0.0,0.0,0.0,0.0,0.0,0.0,0.0,0.0,0.0,0.0,0.0,0.0,0.0,0.0,0.0,0.0,0.0,0.0,0.0,0.0,0.0,0.0,0.0,0.0,0.0,0.0,0.0,0.0,0.0,0.0,0.0,0.0,0.0,0.0,0.0,0.0,0.0,0.0,0.0,0.0,0.0,0.0,0.0,0.0,0.0,0.0,0.0,0.0,0.0,0.0,0.0,0.0,0.0,0.0,0.0,0.0,0.0,0.0,0.0,0.0,0.0,0.0,0.0,0.0,0.0,0.0,0.0,0.0,0.0,0.0,0.0,0.0,0.0,0.0,0.0,0.0,0.0,0.0,0.0,0.0,0.0,0.0,0.0,0.0,0.0,0.0,0.0,0.0,0.0,0.0,0.0,0.0,0.0,0.0,0.0,0.0,0.0,0.0,0.0,0.0,0.0,0.0,0.0,0.0,0.0,0.0,0.0,0.0,0.0,0.0,0.0,0.0,0.0,0.0,0.0,0.0,0.0,0.0,0.0,0.0,0.0,0.0,0.0,0.0,0.0,0.0,0.0,0.0,0.0,0.0,0.0,0.0,0.0,0.0,0.0,0.0,0.0,0.0,0.0,0.0,0.0,0.0,0.0,0.0,0.0,0.0,0.0,0.0,0.0,0.0,0.0,0.0,0.0,0.0,0.0,0.0,0.0,0.0,0.0,0.0,0.0,0.0,0.0,0.0,0.0,0.0,0.0,0.0,0.0,0.0,0.0,0.0,0.0,0.0,0.0,0.0,0.0,0.0,0.0,0.0,0.0,0.0,0.0,0.0,0.0,0.0,0.0,0.0,0.0,0.0,0.0,0.0,0.0,0.0,0.0,0.0,0.0,0.0,0.0,0.0,0.0,0.0,0.0,0.0,0.0,0.0,0.0,0.0,0.0,0.0,0.0,0.0,0.0,0.0,0.0,0.0,0.0,0.0,0.0,0.0,0.0,0.0,0.0,0.0,0.0,0.0,0.0,0.0,0.0,0.0,0.0,0.0,0.0,0.0,0.0,0.0,0.0,0.0,0.0,0.0,0.0,0.0,0.0,0.0,0.0,0.0,0.0,0.0,0.0,0.0,0.0,0.0,0.0,0.0,0.0,0.0,0.0,0.0,0.0,0.0,0.0,0.0,0.0,0.0,0.0,0.0,0.0,0.0,0.0,0.0,0.0,0.0,0.0,0.0,0.0,0.0,0.0,0.0,0.0,0.0,0.0,0.0,0.0,0.0,0.0,0.0,0.0,0.0,0.0,0.0,0.0,0.0,0.0,0.0,0.0,0.0,0.0,0.0,0.0,0.0,0.0,0.0,0.0,0.0,0.0,0.0,0.0,0.0,0.0,0.0,0.0,0.0,0.0,0.0,0.0,0.0,0.0,0.0,0.0,0.0,0.0,0.0,0.0,0.0,0.0,0.0,0.0,0.0,0.0,0.0,0.0,0.0,0.0,0.0,0.0,0.0,0.0,0.0,0.0,0.0,0.0,0.0,0.0,0.0,0.0,0.0,0.0,0.0,0.0,0.0,0.0,0.0,0.0,0.0,0.0,0.0,0.0,0.0,0.0,0.0,0.0,0.0,0.0,0.0,0.0,0.0,0.0,0.0,0.0,0.0,0.0,0.0,0.0,0.0,0.0,0.0,0.0,0.0,0.0,0.0,0.0,0.0,0.0,0.0,0.0,0.0,0.0,0.0,0.0,0.0,0.0,0.0,0.0,0.0,0.0,0.0,0.0,0.0,0.0,0.0,0.0,0.0,0.0,0.0,0.0,0.0,0.0,0.0,0.0,0.0,0.0,0.0,0.0,0.0,0.0,0.0,0.0,0.0,0.0,0.0,0.0,0.0,0.0,0.0,0.0,0.0,0.0,0.0,0.0,0.0,0.0,0.0,0.0,0.0,0.0,0.0,0.0,0.0,0.0,0.0,0.0,0.0,0.0,0.0,0.0,0.0,0.0,0.0,0.0,0.0,0.0,0.0,0.0,0.0,0.0,0.0,0.0,0.0,0.0,0.0,0.0,0.0,0.0,0.0,0.0,0.0,0.0,0.0,0.0,0.0,0.0,0.0,0.0,0.0,0.0,0.0,0.0,0.0,0.0,0.0,0.0,0.0,0.0,0.0,0.0,0.0,0.0,0.0,0.0,0.0,0.0,0.0,0.0,0.0,0.0,0.0,0.0,0.0,0.0,0.0,0.0,0.0,0.0,0.0,0.0,0.0,0.0,0.0,0.0,0.0,0.0,0.0,0.0,0.0,0.0,0.0,0.0,0.0,0.0,0.0,0.0,0.0,0.0,0.0,0.0,0.0,0.0,0.0,0.0,0.0,0.0,0.0,0.0,0.0,0.0,0.0,0.0,0.0,0.0,0.0,0.0,0.0,0.0,0.0,0.0,0.0,0.0,0.0,0.0,0.0,0.0,0.0,0.0,0.0,0.0,0.0,0.0,0.0,0.0,0.0,0.0,0.0,0.0,0.0,0.0,0.0,0.0,0.0,0.0,0.0,0.0,0.0,0.0,0.0,0.0,0.0,0.0,0.0,0.0,0.0,0.0,0.0,0.0,0.0,0.0,0.0,0.0,0.0,0.0,0.0,0.0,0.0,0.0,0.0,0.0,0.0,0.0,0.0,0.0,0.0,0.0,0.0,0.0,0.0,0.0,0.0,0.0,0.0,0.0,0.0,0.0,0.0,0.0,0.0,0.0,0.0,0.0,0.0,0.0,0.0,0.0,0.0,0.0,0.0,0.0,0.0,0.0,0.0,0.0,0.0,0.0,0.0,0.0,0.0,0.0,0.0,0.0,0.0,0.0,0.0,0.0,0.0,0.0,0.0,0.0,0.0,0.0,0.0,0.0,0.0,0.0,0.0,0.0,0.0,0.0,0.0,0.0,0.0,0.0,0.0,0.0,0.0,0.0,0.0,0.0,0.0,0.0,0.0,0.0,0.0,0.0,0.0,0.0,0.0,0.0,0.0,0.0,0.0,0.0,0.0,0.0,0.0,0.0,0.0,0.0,0.0,0.0,0.0,0.0,0.0,0.0,0.0,0.0,0.0,0.0,0.0,0.0,0.0,0.0,0.0,0.0,0.0,0.0,0.0,0.0,0.0,0.0,0.0,0.0,0.0,0.0,0.0,0.0,0.0,0.0,0.0,0.0,0.0,0.0,0.0,0.0,0.0,0.0,0.0,0.0,0.0,0.0,0.0,0.0,0.0,0.0,0.0,0.0,0.0,0.0,0.0,0.0,0.0,0.0,0.0,0.0,0.0,0.0,0.0,0.0,0.0,0.0,0.0,0.0,0.0,0.0,0.0,0.0,0.0,0.0,0.0,0.0,0.0,0.0,0.0,0.0,0.0,0.0,0.0,0.0,0.0,0.0,0.0,0.0,0.0,0.0,0.0,0.0,0.0,0.0,0.0,0.0,0.0,0.0,0.0,0.0,0.0,0.0,0.0,0.0,0.0,0.0,0.0,0.0,0.0,0.0,0.0,0.0,0.0,0.0,0.0,0.0,0.0,0.0,0.2163,0.5862,1.2779,1.2853,1.2902,1.2501,0.5345,0.1813,0.111,0.0,0.0,0.0,0.0,0.0,0.0,0.0,0.0,0.0,0.0,0.0,0.0,0.0,0.0,0.0,0.0,0.0,0.0,0.0,0.0,0.0,0.0,0.0,0.0,0.0,0.0,0.0,0.0,0.0,0.0,0.0,0.0,0.0,0.0,0.0,0.0,0.0,0.0,0.0,0.0,0.0,0.0,0.0,0.0,0.0,0.0,0.0,0.0,0.0,0.0,0.0,0.0,0.0,0.0,0.0,0.0,0.0,0.0,0.0,0.0,0.0,0.0,0.0,0.0,0.0,0.0,0.0,0.0,0.0,0.0,0.0,0.0,0.0,0.0,0.0,0.0,0.0,0.0,0.0,0.0,0.0,0.0,0.0,0.8635,0.0921,0.0,0.0,0.0,0.0,0.0,0.0,0.0,0.0,0.0,0.0,0.0,0.0,0.0,1.1203,1.1206,1.1202,1.1204,1.1195,1.0792,1.1184,1.2313,1.2709,1.2906,1.2842,1.1696,0.0,0.5562,0.5562,0.0,0.0,0.0,0.0,0.0,0.0,0.0,0.0,0.0,0.0,0.0,0.0,0.0,0.0,0.0,0.0,0.0,0.0,0.0,0.0,0.0,0.0,0.0,0.0,0.0,0.0,0.0,0.0,0.0,0.0,0.0,0.0,0.0,0.0,0.0,0.0,0.0,0.0,0.0,0.0,0.0,0.0,0.0,0.0,0.0,0.0,0.0,0.0,0.0,0.0,0.0,0.0,0.0,0.0,0.0,0.0,0.0,0.0,0.0,0.0,0.0,0.0,0.0,0.0,0.0,0.0,0.0,0.0,0.0,0.0,0.0,0.0,0.0,0.0,0.0,0.0,0.0,0.0,0.0,0.0,0.0,0.9125,1.0542,0.6893,0.5803,0.5743,0.0,0.0,0.0,0.0,0.0,0.0,0.0,0.0,0.0,0.7255,1.0673,1.2504,1.2512,1.2504,1.2637,1.2898,1.2687,1.2592,1.2593,1.281,1.2898,1.2901,1.2901,1.1821,1.0053,1.005,0.8947,0.6772,0.0,0.0,0.0,0.0,0.0,0.0,0.0,0.0,0.0,0.0,0.0,0.0,0.0,0.0,0.0,0.0,0.0,0.0,0.0,0.0,0.0,0.0,0.0,0.0,0.0,0.0,0.0,0.0,0.0,0.0,0.0,0.0,0.0,0.0,0.0,0.0,0.0,0.0,0.0,0.0,0.0,0.0,0.0,0.0,0.0,0.0,0.0,0.0,0.0,0.0,0.0,0.0,0.0,0.0,0.0,0.0,0.0,0.0,0.0,0.0,0.0,0.0,0.0,0.0,0.0,0.0,0.0,0.0,0.0,0.0,0.0,0.0,0.0,0.0,0.0,0.0,0.0,0.0,0.0,0.6134,1.0898,1.1596,0.6639,0.5595,0.0,0.0,0.0,0.0,0.0,0.0,0.33,0.9285,1.2713,1.2721,1.2505,1.238,1.2384,1.238,1.2556,1.2908,1.2904,1.2902,1.2902,1.2902,1.2902,1.2902,1.2902,1.2902,1.2901,1.2897,1.2906,1.2194,0.5006,0.197,0.1636,0.164,0.1634,0.1638,0.1642,0.0924,0.0,0.0,0.0,0.0,0.0,0.0,0.0,0.0,0.0,0.0,0.0,0.0,0.0,0.0,0.0,0.0,0.0,0.0,0.0,0.0,0.0,0.0,0.0,0.0,0.0,0.0,0.0,0.0,0.0,0.0,0.0,0.0,0.0,0.0,0.0,0.0,0.0,0.0,0.0,0.0,0.0,0.0,0.0,0.0,0.0,0.0,0.0,0.0,0.0,0.0,0.0,0.0,0.0,0.0,0.0,0.0,0.0,0.0,0.0,0.0,0.0,0.0,0.0,0.0,0.0,0.0,0.0,0.0,0.0,0.0,0.0,0.0,0.0,1.1706,1.1935,0.0,0.0,0.0,0.0,1.231,1.2351,1.2249,1.2252,1.2245,1.2238,1.2243,1.2639,1.2856,1.2858,1.2864,1.2876,1.2895,1.2899,1.2904,1.2904,1.2904,1.2897,1.2902,1.2902,1.2902,1.2902,1.2895,1.2899,1.2584,0.9409,0.7314,0.608,0.6083,0.6075,0.6081,0.6082,0.3412,0.0,0.0,0.0,0.0,0.0,0.0,0.0,0.0,0.0,0.0,0.0,0.0,0.0,0.0,0.0,0.0,0.0,0.0,0.0,0.0,0.0,0.0,0.0,0.0,0.0,0.0,0.0,0.0,0.0,0.0,0.0,0.0,0.0,0.0,0.0,0.0,0.0,0.0,0.0,0.0,0.0,0.0,0.0,0.0,0.0,0.0,0.0,0.0,0.0,0.0,0.0,0.0,0.0,0.0,0.0,0.0,0.0,0.0,0.0,0.0,0.0,0.0,0.0,0.0,0.0,0.0,0.0,0.0,0.0,0.0,0.0,0.0,0.0,1.1711,0.9924,0.0,1.2357,1.1636,1.1398,1.2359,1.252,1.258,1.2577,1.2343,1.2199,1.22,1.236,1.2588,1.2897,1.2893,1.2899,1.2899,1.2905,1.2902,1.2902,1.2902,1.2902,1.2902,1.2902,1.2902,1.2902,1.2902,1.2894,1.2796,1.1771,1.1054,1.0586,1.0582,1.0582,1.058,1.0577,0.9583,0.7841,0.5035,0.4123,0.4114,0.4126,0.4116,0.4113,0.4114,0.2134,0.0,0.0,0.0,0.0,0.0,0.0,0.0,0.0,0.0,0.0,0.0,0.0,0.0,0.0,0.0,0.0,0.0,0.0,0.0,0.0,0.0,0.0,0.0,0.0,0.0,0.0,0.0,0.0,0.0,0.0,0.0,0.0,0.0,0.0,0.0,0.0,0.0,0.0,0.0,0.0,0.0,0.0,0.0,0.0,0.0,0.0,0.0,0.0,0.0,0.0,0.0,0.0,0.0,0.0,0.0,0.0,0.0,0.0,0.0,0.0,0.0,0.0,0.0,0.9215,1.1885,0.9846,0.9346,1.2192,1.2506,1.2497,1.2415,1.2395,1.2393,1.2398,1.2333,1.2336,1.2427,1.2443,1.2595,1.2899,1.2905,1.2902,1.2902,1.2902,1.2902,1.2902,1.2902,1.2902,1.2902,1.2902,1.2902,1.2902,1.2902,1.2906,1.2897,1.2894,1.2893,1.2893,1.2893,1.2896,1.2903,1.2901,1.2901,1.2417,0.9527,0.8596,0.859,0.8593,0.8591,0.86,0.8592,0.6543,0.3682,0.0753,0.0,0.0,0.0,0.0,0.0,0.0,0.0,0.0,0.0,0.0,0.0,0.0,0.0,0.0,0.0,0.0,0.0,0.0,0.0,0.0,0.0,0.0,0.0,0.0,0.0,0.0,0.0,0.0,0.0,0.0,0.0,0.0,0.0,0.0,0.0,0.0,0.0,0.0,0.0,0.0,0.0,0.0,0.0,0.0,0.0,0.0,0.0,0.0,0.0,0.0,0.0,0.0,0.0,0.0,0.0,0.0,0.0,0.0,0.0,1.222,1.2313,1.235,1.222,1.2325,1.2388,1.239,1.2397,1.2393,1.2405,1.241,1.241,1.2398,1.2477,1.2615,1.2876,1.2902,1.2901,1.2901,1.2905,1.2902,1.2902,1.2902,1.2902,1.2902,1.2902,1.2902,1.2902,1.2902,1.2902,1.2902,1.2902,1.2902,1.2902,1.2902,1.2902,1.2902,1.2902,1.2902,1.2902,1.2894,1.2899,1.2901,1.2904,1.2896,1.2898,1.2902,1.29,1.2897,1.2898,1.2833,1.0836,0.2443,0.024,0.0202,0.0202,0.0101,0.0,0.0,0.0,0.0,0.0,0.0,0.0,0.0,0.0,0.0,0.0,0.0,0.0,0.0,0.0,0.0,0.0,0.0,0.0,0.0,0.0,0.0,0.0,0.0,0.0,0.0,0.0,0.0,0.0,0.0,0.0,0.0,0.0,0.0,0.0,0.0,0.0,0.0,0.0,0.0,0.0,0.0,0.0,0.0,0.0,0.0,0.0,0.0,0.0,0.0,0.0,0.0,0.0,0.0,1.2436,1.2359,1.2292,1.2283,1.2345,1.2293,1.2249,1.2252,1.2394,1.2449,1.2398,1.2539,1.2587,1.2475,1.2547,1.2582,1.2607,1.28,1.2903,1.2903,1.2898,1.2902,1.2902,1.2902,1.2902,1.2902,1.2902,1.2902,1.2902,1.2902,1.2902,1.2902,1.2902,1.2902,1.2902,1.2902,1.2902,1.2902,1.2902,1.2902,1.2902,1.2908,1.2895,1.2901,1.2901,1.2905,1.2898,1.2898,1.2896,1.2903,1.2901,1.1395,0.924,0.6849,0.5447,0.4644,0.4644,0.2267,0.0,0.0,0.0,0.0,0.0,0.0,0.0,0.0,0.0,0.0,0.0,0.0,0.0,0.0,0.0,0.0,0.0,0.0,0.0,0.0,0.0,0.0,0.0,0.0,0.0,0.0,0.0,0.0,0.0,0.0,0.0,0.0,0.0,0.0,0.0,0.0,0.0,0.0,0.0,0.0,0.0,0.0,0.0,0.0,0.0,0.0,0.0,0.0,0.0,0.0,0.0,0.0,0.0,1.2416,1.2422,1.2332,1.23,1.2289,1.2311,1.2295,1.2284,1.2284,1.241,1.248,1.2433,1.2602,1.2665,1.2588,1.2666,1.2707,1.2669,1.2827,1.2902,1.2902,1.2902,1.2902,1.2902,1.2902,1.2902,1.2902,1.2902,1.2902,1.2902,1.2902,1.2902,1.2902,1.2902,1.2902,0.0,0.0,0.0,0.0,0.0,1.2902,1.2902,1.2902,1.2902,1.2902,1.2902,1.2902,1.2902,1.2895,1.2901,1.2901,1.2894,1.1693,1.0405,1.0405,0.9761,0.9121,0.9121,0.7217,0.4929,0.3214,0.2851,0.2855,0.2853,0.1307,0.0,0.0,0.0,0.0,0.0,0.0,0.0,0.0,0.0,0.0,0.0,0.0,0.0,0.0,0.0,0.0,0.0,0.0,0.0,0.0,0.0,0.0,0.0,0.0,0.0,0.0,0.0,0.0,0.0,0.0,0.0,0.0,0.0,0.0,0.0,0.0,0.0,0.0,0.0,0.0,0.0,0.0,0.0,0.0,0.0,0.0,0.0,1.2327,1.2366,1.2246,1.2333,1.2366,1.224,1.2327,1.2409,1.2409,1.2482,1.2516,1.2516,1.2649,1.2727,1.2727,0.0,0.0,0.0,0.0,1.2902,1.2902,1.2902,1.2902,1.2902,1.2902,1.2902,1.2902,1.2902,1.2902,1.2902,1.2902,1.2902,1.2902,1.2902,1.2902,1.2902,1.2902,1.2902,1.2902,1.2902,1.2902,1.2902,1.2902,0.0,0.0,1.2902,1.2902,1.2902,1.2894,1.2899,1.2904,1.2896,1.2901,1.2901,1.2917,1.2917,1.2923,1.2934,1.2926,1.1933,0.8295,0.7543,0.7562,0.7573,0.4299,0.1206,0.0181,0.0,0.0,0.0,0.0,0.0,0.0,0.0,0.0,0.0,0.0,0.0,0.0,0.0,0.0,0.0,0.0,0.0,0.0,0.0,0.0,0.0,0.0,0.0,0.0,0.0,0.0,0.0,0.0,0.0,0.0,0.0,0.0,0.0,0.0,0.0,0.0,0.0,0.0,0.0,0.0,0.0,0.0,0.0,0.0,1.2447,1.2463,1.2443,1.2371,1.2434,1.2455,1.2371,1.2428,1.2474,1.2474,1.2595,1.266,1.266,1.2793,1.2864,1.2864,1.2886,1.2902,1.2902,1.2902,1.2902,1.2902,1.2902,1.2902,1.2902,0.0,0.0,1.2902,1.2902,1.2902,1.2902,1.2902,1.2902,1.2902,1.2902,1.2902,1.2902,1.2902,1.2902,1.2902,1.2902,1.2902,1.2902,1.2902,1.2902,1.2902,1.2902,1.2902,1.2902,1.2902,1.2908,0.0,1.2895,1.2901,1.2922,1.3033,1.306,1.3069,1.3136,1.3097,1.2844,1.2053,1.2096,1.228,1.2275,1.1565,0.8639,0.1272,0.0,0.0,0.0,0.0,0.0,0.0,0.0,0.0,0.0,0.0,0.0,0.0,0.0,0.0,0.0,0.0,0.0,0.0,0.0,0.0,0.0,0.0,0.0,0.0,0.0,0.0,0.0,0.0,0.0,0.0,0.0,0.0,0.0,0.0,0.0,0.0,0.0,0.0,0.0,0.0,1.2593,0.0,0.0,1.2568,1.2466,1.2486,1.249,1.2455,1.2547,1.2562,1.246,1.2535,1.2593,1.2593,1.2714,1.2797,1.2797,1.2864,1.2902,1.2902,1.2902,1.2902,1.2902,1.2902,1.2902,1.2902,1.2902,1.2902,1.2902,1.2902,1.2902,1.2902,1.2902,1.2902,1.2902,1.2902,1.2902,1.2902,1.2902,1.2897,1.2901,1.2901,1.2901,1.2902,1.2902,1.2902,1.2902,1.2902,1.2902,1.2902,1.2902,1.2953,1.3002,1.3002,1.302,1.3051,1.3051,1.3051,1.3062,1.3127,1.3156,1.3154,1.3188,1.3171,1.3173,1.3245,1.3381,1.3518,1.3589,1.1765,0.9479,0.7195,0.3019,0.0,0.0,0.0,0.0,0.0,0.0,0.0,0.0,0.0,0.0,0.0,0.0,0.0,0.0,0.0,0.0,0.0,0.0,0.0,0.0,0.0,0.0,0.0,0.0,0.0,0.0,0.0,0.0,0.0,0.0,0.0,0.0,0.0,0.0,0.0,0.0,1.2572,1.2808,1.2754,1.2638,1.2543,1.2611,1.2618,1.2486,1.2504,1.2545,1.2545,1.2655,1.2693,1.2588,1.2671,1.2738,1.2738,1.2842,1.2902,1.2902,1.2902,1.2902,1.2902,1.2902,1.2902,1.2902,1.2902,1.2902,1.2902,1.2902,1.2901,1.2897,1.2897,1.2896,1.2905,1.2905,1.2905,1.2905,1.2905,1.2905,1.2905,1.2905,1.2896,1.2906,1.3,1.3042,1.3018,1.293,1.2905,1.2905,1.293,1.2942,1.2942,1.2942,1.3033,1.3115,1.3115,1.3154,1.3199,1.3199,1.3199,1.3205,1.3232,1.3237,1.3255,1.3264,1.3283,1.331,1.342,1.3448,1.3467,1.3581,0.9959,0.804,1.1725,0.6271,0.1083,0.0147,0.0,0.0,0.0,0.0,0.0,0.0,0.0,0.0,0.0,0.0,0.0,0.0,0.0,0.0,0.0,0.0,0.0,0.0,0.0,0.0,0.0,0.0,0.0,0.0,0.0,0.0,1.2436,1.2557,1.2678,1.2814,1.2765,1.2703,0.0,0.0,1.2538,1.2687,1.2622,1.2543,1.2655,1.2588,1.2556,1.2651,1.2665,1.2676,1.2676,1.2792,1.2875,1.2864,1.287,1.2881,1.2881,1.2891,1.2902,1.2902,1.2902,1.2902,1.2902,1.2902,1.2902,1.2902,1.2902,1.2902,1.2902,1.2902,1.2906,1.2896,1.2896,1.2893,1.29,1.29,1.29,1.29,1.29,1.29,1.29,1.29,1.2892,1.2947,1.3363,1.3524,1.3474,1.3053,1.29,1.2925,1.3041,1.3084,1.3097,1.3148,1.3185,1.3196,1.3196,1.3188,1.3199,1.3199,1.3199,1.3226,1.3348,1.3375,1.3415,1.3524,1.3564,1.3556,1.3567,1.3583,1.3573,1.3603,1.0109,0.7323,0.7825,0.7075,0.4938,0.0648,0.0,0.0,0.0,0.0,0.0,0.0,0.0,0.0,0.0,0.0,0.0,0.0,0.0,0.0,0.0,0.0,0.0,0.0,0.0,0.0,0.0,0.0,0.0,0.0,0.0,0.0,1.2589,1.2655,0.0,0.0,1.2682,1.2593,1.2648,1.2583,1.2545,1.2671,1.2655,1.2638,1.2682,1.2727,1.2732,0.0,1.2765,1.2826,1.2826,1.2857,1.2902,1.2902,1.2902,1.2902,1.2902,1.2902,1.2902,1.2902,1.2902,1.2902,1.2902,1.2902,1.2947,1.3006,1.2943,1.2894,1.2895,1.2895,1.2896,1.2893,1.318,1.3309,1.3302,1.3302,1.3302,1.3302,1.3302,1.3302,1.3302,1.3302,1.3307,1.3334,1.3515,1.3603,1.3582,1.3382,1.3302,1.332,1.3372,1.3397,1.3384,1.3333,1.3325,1.3321,1.3321,1.3369,1.3424,1.3424,1.3424,1.3453,1.3502,1.3513,1.3529,1.3591,1.3602,1.3624,1.3694,1.3716,1.3717,1.3718,1.2274,1.1105,1.1293,1.1329,1.07,0.8842,0.6067,0.4194,0.419,0.4294,0.3239,0.0309,0.0,0.0,0.0,0.0,0.0,0.0,0.0,0.0,0.0,0.0,0.0,0.0,0.0,0.0,0.0,0.0,0.0,0.0,0.0,0.0,1.2682,0.0,0.0,1.2655,1.2572,1.2505,1.255,1.2534,1.2545,1.2671,1.2705,1.2705,1.2705,1.2803,1.287,1.277,1.2842,1.2902,1.2902,1.2902,1.2902,1.2902,1.2902,1.2902,1.2902,1.2902,1.2902,1.2902,1.2902,1.2902,1.2902,1.2902,1.2957,1.3107,1.3057,1.3022,1.2975,1.3058,1.3087,1.3106,1.3434,1.3598,1.3605,1.3605,1.3605,1.3605,1.3605,1.3605,1.3605,1.3605,1.3603,1.3608,1.3608,1.3605,1.3599,1.3601,1.3605,1.3605,1.3605,1.3605,1.3579,1.3483,1.3466,1.3458,1.3458,1.3518,1.3602,1.3602,1.3602,1.3613,1.3645,1.3656,1.3662,1.3694,1.3713,1.374,1.3827,1.3863,1.3863,1.3858,1.3901,1.4028,1.4264,1.4365,1.4478,1.4674,1.1594,0.9266,0.9271,0.945,0.7641,0.2606,0.0833,0.0,0.0,0.0,0.0,0.0,0.0,0.0,0.0,0.0,0.0,0.0,0.0,0.0,0.0,0.0,0.0,0.0,0.0,0.0,0.0,0.0,1.2665,1.2545,1.25,1.2527,1.266,1.2588,1.2545,1.2671,1.2705,1.2705,1.2705,1.2803,1.2897,1.2897,1.2897,1.2902,1.2902,1.2902,1.2902,1.2902,1.2902,1.2902,0.0,1.2902,1.2902,1.2902,1.2902,1.2902,1.2902,1.2902,1.2957,1.3107,1.329,1.332,1.3186,1.3449,1.3574,1.3573,1.3586,1.36,1.3604,1.3604,1.3604,1.3604,1.3604,1.3604,1.3604,1.3604,1.3597,1.3597,1.3597,1.3602,1.3602,1.3597,1.3604,1.3604,1.3604,1.3604,1.3604,1.3604,1.3597,1.3583,1.3583,1.3602,1.3602,1.3602,1.3602,1.3629,1.3762,1.3795,1.3822,1.3958,1.3985,1.3985,1.399,1.399,1.399,1.3982,1.4151,1.4295,1.4309,1.4518,1.4685,1.4699,1.4571,1.4468,1.4468,1.4656,1.2853,0.781,0.291,0.0,0.0,0.0,0.0,0.0,0.0,0.0,0.0,0.0,0.0,0.0,0.0,0.0,0.0,0.0,0.0,0.0,0.0,0.0,0.0,0.0,1.2561,1.2511,1.25,1.2511,1.2561,1.2599,1.2644,1.2682,1.277,1.2825,1.2825,1.287,1.2902,1.2902,1.2902,1.2902,1.2902,1.2902,1.2902,1.2902,1.2902,0.0,0.0,0.0,0.0,1.2902,1.2902,1.2902,1.2902,1.2902,1.2977,1.3165,1.3324,1.3423,1.3464,1.3548,1.3596,1.36,1.3597,1.3604,1.3607,1.3597,1.3607,1.3607,1.3607,1.3607,1.3607,1.3607,1.3607,1.3607,1.3607,1.3607,1.3607,1.3607,1.3607,1.3594,1.3603,1.3603,1.3602,1.3602,1.3669,1.3728,1.3728,1.3795,1.3863,1.3863,1.3863,1.3873,1.3917,1.3928,1.3933,1.399,1.3996,1.4004,1.4053,1.414,1.4236,1.4309,1.4464,1.4573,1.4573,1.4647,1.4729,1.4816,1.4756,1.4729,1.4812,1.4854,1.4252,1.2652,1.0953,0.86,0.526,0.4971,0.3558,0.0215,0.0,0.0,0.0,0.0,0.0,0.0,0.0,0.0,0.0,0.0,0.0,0.0,0.0,0.0,0.0,1.2599,1.25,1.25,1.2545,1.2572,1.2572,1.2676,1.277,1.277,1.2848,1.2902,1.2902,1.2902,1.2902,1.2902,1.2902,1.2902,1.2902,1.2902,1.2902,1.2902,1.294,1.3007,0.0,0.0,0.0,1.3015,1.2989,1.2984,1.3009,1.2977,1.3058,1.3272,1.3355,1.3462,1.3601,1.3601,1.3596,1.3594,1.3602,1.3699,1.3852,1.3855,1.3847,1.3847,1.3847,1.3847,1.3847,1.3847,1.3847,1.3847,1.3847,1.3847,1.3847,1.3847,1.3847,1.3825,1.3661,1.3602,1.3626,1.3806,1.3909,1.3969,1.3915,1.3969,1.4023,1.4009,1.3996,1.4007,1.4037,1.4067,1.4124,1.4168,1.4225,1.4266,1.4309,1.4376,1.4477,1.4548,1.4671,1.4772,1.4772,1.4785,1.484,1.4927,1.4896,1.4885,1.4927,1.4896,1.489,1.499,1.5008,1.3699,1.0455,1.0175,0.8805,0.5563,0.3673,0.1881,0.0071,0.0,0.0,0.0,0.0,0.0,0.0,0.0,0.0,0.0,0.0,0.0,1.2705,1.2611,1.2505,1.2505,1.2604,1.2716,1.2716,1.2803,1.2902,1.2902,1.2902,1.2902,0.0,0.0,1.2902,1.2908,1.2902,1.2902,1.2902,1.2908,1.2908,0.0,0.0,0.0,0.0,0.0,0.0,1.3254,0.0,1.3124,1.3194,1.3158,1.3207,1.3397,1.3426,1.3474,1.36,1.3618,1.3645,1.3639,1.3644,1.3871,1.4308,1.43,1.4306,1.4298,1.4298,1.4298,1.4298,1.4298,1.4298,1.4298,1.4298,1.4298,1.4298,1.4298,1.4298,1.4243,1.3784,1.3638,1.3703,1.4161,1.4308,1.4273,1.4164,1.4129,1.4116,1.4048,1.4034,1.4048,1.4113,1.4235,1.4349,1.4474,1.4614,1.4701,1.4701,1.4716,1.4718,1.4718,1.4816,1.4912,1.4912,1.4952,1.501,1.501,1.5122,1.5164,1.5035,1.5024,1.5024,1.5024,1.5021,1.5022,1.5022,1.5005,1.5006,1.4999,1.0515,0.5745,0.0962,0.0271,0.0,0.0,0.0,0.0,0.0,0.0,0.0,0.0,0.0,0.0,1.2705,1.2683,1.2649,1.2649,1.2754,1.2853,1.2853,1.2881,1.2902,1.2902,1.2902,1.293,0.0,0.0,0.0,1.3035,1.2975,0.0,1.2902,1.2991,0.0,0.0,0.0,1.3207,1.3312,1.3344,0.0,0.0,1.352,1.3179,1.3199,1.3285,1.3388,1.354,1.3645,1.3672,1.3596,1.3952,1.4123,1.4123,1.4116,1.4181,1.4293,1.4306,1.4303,1.4305,1.4305,1.4305,1.4305,1.4305,1.4305,1.4305,1.4305,1.4305,1.4305,1.4305,1.4305,1.4277,1.4159,1.4125,1.4138,1.4266,1.4294,1.4335,1.4508,1.4507,1.4474,1.4502,1.4516,1.4533,1.4546,1.4573,1.4614,1.4647,1.4671,1.4701,1.4701,1.4787,1.4857,1.4857,1.4927,1.4965,1.4965,1.5062,1.5149,1.5149,1.5262,1.5304,1.5175,1.5234,1.5304,1.5304,1.5304,1.5304,1.5304,1.5203,1.5105,1.5015,1.3801,1.2515,1.123,0.3987,0.0,0.0,0.0,0.0,0.0,0.0,0.0,0.0,0.0,0.0,1.277,1.2743,1.2703,1.277,1.2835,1.2902,1.2902,1.2902,1.2913,1.298,1.2991,0.0,0.0,0.0,0.0,0.0,0.0,0.0,1.3227,1.3326,1.3454,0.0,1.3802,0.0,1.4054,1.4104,1.4239,0.0,1.399,1.3713,1.3806,1.3834,1.3817,1.3781,1.3852,1.3844,1.3774,1.4126,1.4291,1.4293,1.4308,1.4303,1.4303,1.452,1.4619,1.4616,0.0,1.4616,1.4616,1.4616,1.4616,1.4616,1.4616,1.4616,1.4616,1.4616,1.4616,1.4616,1.4616,1.4604,1.4575,1.4365,1.4307,1.4372,1.4716,1.4803,1.4773,1.4744,1.4716,1.4701,1.4701,1.4745,1.4789,1.4789,1.4812,1.4825,1.4825,1.4885,1.4956,1.5025,1.5064,1.5106,1.5164,1.5234,1.5293,1.5293,1.5405,1.546,1.5391,1.5391,1.5405,1.5405,1.5405,1.5405,1.5405,1.5331,1.5232,1.51,1.509,1.5062,1.4994,0.9587,0.4503,0.0087,0.0,0.0,0.0,0.0,0.0,0.0,0.0,0.0,1.287,1.2821,1.2754,1.2875,1.2902,1.2902,1.2902,1.2913,1.2957,1.3073,0.0,1.3136,1.3196,1.3145,1.312,1.3183,0.0,1.319,1.3727,1.3814,1.4013,1.4469,1.4654,1.4795,1.4917,1.4974,1.4914,1.471,1.4458,1.4368,1.4509,1.4427,1.4263,1.4048,1.404,1.4039,1.4037,1.4275,1.4386,1.4397,1.4397,1.4397,1.4413,1.4803,1.5005,1.5007,1.5007,0.0,1.5007,1.5007,1.5007,1.5007,1.5007,1.5007,1.5007,1.5007,1.5007,1.5007,1.5007,1.5007,1.4931,1.4527,1.4394,1.4467,1.4877,1.5007,1.4979,1.4859,1.4774,1.4745,1.4745,1.4827,1.4914,1.4914,1.4956,1.4993,1.4993,1.501,1.5062,1.5207,1.5234,1.5262,1.5374,1.5401,1.5433,1.5433,1.5546,1.5633,1.5633,1.5535,1.5449,1.5449,1.5449,1.5449,1.5449,1.5433,1.5374,1.5262,1.5218,1.5149,1.5033,1.5012,1.0896,0.2166,0.0678,0.0,0.0,0.0,0.0,0.0,0.0,0.0,1.2897,1.2886,1.2875,1.2897,1.2902,1.2902,1.2902,1.2991,0.0,0.0,0.0,1.319,1.3194,1.3145,1.3247,1.3697,0.0,0.0,0.0,0.0,1.4559,0.0,0.0,0.0,0.0,0.0,0.0,0.0,0.0,1.4302,1.4114,1.4127,1.4179,1.4248,1.4247,1.4245,1.4259,1.4675,1.4876,1.4879,1.4879,1.4874,1.4888,1.4959,1.5,1.4999,1.4999,0.0,1.4996,1.4996,1.4996,1.4996,1.4996,1.4996,1.4996,1.4996,1.4996,1.4996,1.4996,1.4996,1.4983,1.4901,1.4872,1.4888,1.4974,1.5002,1.4996,1.4967,1.4952,1.4952,1.4952,1.4965,1.4981,1.4981,1.4992,1.4993,1.4993,1.5095,1.5207,1.5331,1.5378,1.5378,1.5405,1.5487,1.5573,1.5573,1.5671,1.5773,1.5773,1.5746,1.573,1.573,1.573,1.573,1.573,1.5633,1.5562,1.5531,1.5316,1.5191,1.5175,1.5062,1.4175,1.2424,0.4229,0.0,0.0,0.0,0.0,0.0,0.0,0.0,1.2902,1.2902,1.2902,1.2902,1.2902,1.2919,1.2991,0.0,0.0,0.0,0.0,1.3685,1.3361,1.3225,0.0,0.0,0.0,0.0,0.0,0.0,0.0,0.0,0.0,0.0,0.0,0.0,0.0,0.0,0.0,1.4874,1.4437,1.4643,1.4675,1.446,1.5095,1.5078,1.4308,1.6085,1.6981,1.6978,1.6978,1.698,1.6984,1.6984,1.6986,1.6902,1.5574,0.0,1.4992,1.4993,1.4993,1.4992,1.4993,1.4993,1.501,1.5005,1.5003,1.5003,1.4994,1.4995,1.4994,1.5008,1.4994,1.4999,1.4999,1.4994,1.4993,1.4993,1.4993,1.4993,1.4993,1.5051,1.5106,1.5106,1.5164,1.5207,1.5207,1.526,1.5347,1.5476,1.5503,1.5535,1.56,1.566,1.5704,1.5704,1.5757,1.5801,1.5801,1.5801,1.5801,1.5801,1.5801,1.5801,1.5801,1.5746,1.5671,1.56,1.5476,1.5374,1.5304,1.5176,1.5078,1.5,1.0264,0.5226,0.0,0.0,0.0,0.0,0.0,0.0,1.2902,1.2902,1.2902,1.2902,1.2902,1.2947,1.3067,1.3441,0.0,0.0,1.3796,1.4003,1.3493,0.0,1.343,0.0,1.4118,1.4438,0.0,0.0,0.0,0.0,0.0,0.0,0.0,0.0,0.0,0.0,0.0,0.0,1.5133,1.5447,1.5437,1.5023,1.5983,1.6099,1.5265,1.7628,1.8795,1.8796,1.8796,1.8796,1.8796,1.8796,1.8802,1.8683,1.6676,0.0,0.0,1.5586,1.5483,1.5008,1.5005,1.5005,1.5001,1.4995,1.5068,1.5171,1.5164,1.5176,1.5176,1.5176,1.5097,1.5005,1.5005,1.5005,1.5005,1.5064,1.5093,1.5093,1.5093,1.5164,1.523,1.523,1.532,1.5401,1.5433,1.5449,1.5476,1.5617,1.5644,1.5671,1.579,1.5801,1.5801,1.5801,1.5801,1.5801,1.5801,1.5801,1.5801,1.5801,1.5801,1.5801,1.5801,1.5801,1.5757,1.5644,1.5617,1.5547,1.5449,1.5305,1.5175,1.5051,1.5014,1.1107,0.3217,0.2131,0.1048,0.0,0.0,0.0,1.2902,1.2902,1.2902,1.2902,1.2902,1.2947,1.3067,0.0,0.0,1.3382,1.3536,1.3606,1.3426,0.0,0.0,0.0,0.0,1.5144,1.608,1.632,1.6379,1.6314,0.0,0.0,0.0,0.0,0.0,0.0,0.0,0.0,1.6146,1.6304,1.6373,1.6322,1.644,1.7112,1.8373,1.8654,1.8806,1.8806,1.8806,1.8806,1.8806,1.8806,1.8807,1.8795,1.8553,0.0,0.0,1.7492,1.7093,1.5002,1.4998,1.4999,1.4999,1.4995,1.5315,1.5723,1.5725,1.5725,1.5725,1.5725,1.5404,1.4995,1.4995,1.4995,1.5055,1.5283,1.5363,1.5363,1.5363,1.5378,1.5374,1.5374,1.5389,1.5433,1.5562,1.5574,1.5617,1.5757,1.579,1.579,1.5801,1.5801,1.5801,1.5801,1.5801,1.5801,1.5801,1.5801,1.5801,1.5801,1.5801,1.5801,1.5801,1.5801,1.5785,1.579,1.5675,1.5585,1.5574,1.5449,1.5316,1.5178,1.5056,1.4549,1.3606,0.9042,0.4458,0.0,0.0,0.0,1.2902,1.2902,1.2902,1.2902,1.2902,1.2951,1.3116,0.0,1.3697,1.3546,1.4109,1.4484,1.4031,1.4203,1.463,1.5289,1.5487,0.0,1.6341,1.6539,1.66,1.6552,0.0,0.0,0.0,0.0,0.0,0.0,0.0,0.0,1.737,1.7175,1.6947,1.6754,1.7481,1.8188,1.8791,1.8806,1.8802,1.8795,1.8795,1.88,1.8799,1.8799,1.8803,1.8826,1.918,0.0,0.0,1.8916,1.8731,1.7829,1.7833,1.6867,1.548,1.5476,1.5624,1.5807,1.5803,1.5799,1.5799,1.5799,1.5663,1.5478,1.5479,1.548,1.5495,1.5605,1.5635,1.5605,1.5435,1.546,1.5546,1.5617,1.5644,1.566,1.5719,1.5715,1.5746,1.579,1.5801,1.5801,1.5801,1.5801,1.5801,1.5801,1.5801,1.5801,1.5801,1.5801,1.5801,1.5801,1.5801,1.5801,1.5801,1.5801,1.5801,1.5801,1.5742,1.5715,1.5715,1.5589,1.5502,1.5449,1.5313,1.5158,1.4996,1.2988,1.0986,0.8882,0.282,0.0,1.309,1.3027,1.2902,1.2902,1.2902,1.2951,0.0,0.0,1.3826,1.3811,1.4457,1.4943,1.4657,1.4901,1.53,1.575,1.5944,1.6152,1.6509,1.6728,1.6824,0.0,0.0,0.0,0.0,0.0,0.0,0.0,0.0,0.0,1.8037,1.7791,1.7587,1.7378,1.8299,1.8806,1.8806,1.8807,1.88,1.8803,1.8987,1.907,1.9063,1.9063,1.9068,1.9085,1.9522,0.0,0.0,1.9702,1.9701,1.9702,1.9701,1.8578,1.6851,1.6098,1.5799,1.5797,1.5808,1.5804,1.5931,1.6708,1.6425,1.5933,1.6715,1.6407,1.5794,1.5794,1.5794,1.5794,1.5794,1.5725,1.5737,1.6008,1.607,1.602,1.5831,1.5944,1.6005,1.5831,1.5801,1.5801,1.5801,1.5801,1.5801,1.5801,1.5801,1.5801,1.5801,1.5801,1.5801,1.5801,1.5801,1.5801,1.5801,1.5801,1.5801,1.5801,1.5801,1.5801,1.5801,1.5719,1.5644,1.56,1.5503,1.5346,1.5124,1.5124,1.5081,1.4837,0.7736,0.284,1.3552,1.3302,1.2902,1.2902,1.2902,1.2947,0.0,0.0,1.3417,1.4141,1.4346,1.4597,1.5178,1.5296,1.5467,1.6006,1.6104,1.6236,1.6638,1.6972,1.7147,0.0,0.0,0.0,0.0,0.0,0.0,0.0,0.0,0.0,1.7901,1.8144,1.835,1.8484,1.8692,1.8806,1.8806,1.8798,1.8803,1.8803,1.9418,1.9692,1.9692,1.9692,1.9693,1.9696,0.0,0.0,0.0,1.971,1.971,1.971,1.971,1.9678,1.9352,1.6753,1.5808,1.5808,1.5808,1.5808,1.6225,1.8816,1.7913,1.6271,1.8869,1.7846,1.5804,1.5808,1.5808,1.5947,1.6538,1.6238,1.5959,1.6553,1.669,1.6538,1.5928,1.6269,1.6507,1.5928,1.5801,1.5801,1.5801,1.5801,1.5801,1.5801,1.5801,1.5801,1.5801,1.5801,1.5801,1.5801,1.5801,1.5801,1.5801,1.5801,1.5801,1.5801,1.5801,1.5801,1.5801,1.5801,1.5746,1.56,1.56,1.5531,1.5405,1.5405,1.5256,1.5007,1.4889,0.9512,1.3675,1.3577,1.3452,1.3452,1.3165,1.2947,1.3067,0.0,1.3417,1.4154,1.4687,1.5197,1.5736,1.6183,1.6518,1.6689,1.6715,1.6768,0.0,0.0,0.0,1.7025,0.0,0.0,0.0,0.0,0.0,0.0,0.0,0.0,1.8037,1.8199,1.8361,1.8506,1.848,1.8775,1.9413,1.9422,1.9421,1.9426,1.9605,1.969,1.9703,1.9703,1.9693,0.0,0.0,0.0,0.0,1.971,1.971,1.971,1.971,1.9693,1.9602,1.8769,1.8471,1.8475,1.8475,1.8471,1.8599,1.9431,1.9145,1.861,1.9443,1.9115,1.8475,1.8475,1.7611,1.6725,1.6929,1.7038,1.7145,1.7331,1.7038,1.6645,1.6458,1.6238,1.6034,1.5831,1.5801,1.5801,1.5801,1.5801,1.5801,1.5801,1.5801,1.5801,1.5801,1.5801,1.5801,1.5801,1.5801,1.5801,1.5801,1.5801,1.5801,1.5801,1.5801,1.5801,1.5801,1.5801,1.579,1.5746,1.5746,1.5671,1.5546,1.5546,1.5416,1.5195,1.5065,0.961,0.0,1.405,1.3702,1.3702,1.3452,0.0,0.0,0.0,1.4048,1.4791,1.5283,1.5776,1.6341,1.6755,1.6991,1.6991,1.6991,0.0,0.0,0.0,0.0,0.0,0.0,0.0,0.0,0.0,0.0,0.0,0.0,0.0,1.8165,1.8423,1.8626,1.8761,1.8578,1.8761,1.9358,1.9586,1.9696,1.9703,1.9703,1.9697,1.971,1.971,1.971,0.0,0.0,0.0,0.0,1.971,1.971,1.971,1.971,1.971,1.9693,1.9693,1.9693,1.9698,1.9698,1.9693,1.9693,1.9698,1.9693,1.971,1.971,1.9693,1.9698,1.9696,1.8914,1.8001,1.7675,1.7785,1.7928,1.7739,1.7377,1.6956,1.6458,1.6238,1.607,1.5831,1.5801,1.5801,1.5801,1.5801,1.5801,1.5801,1.5801,1.5801,1.5801,1.5801,1.5801,1.5801,1.5801,1.5801,1.5801,1.5801,1.5801,1.5801,1.5801,1.5801,1.5801,1.5801,1.5801,1.5801,1.5801,1.5757,1.5671,1.5618,1.5543,1.5413,1.5255,1.1812,0.0,0.0,0.0,0.0,0.0,0.0,0.0,0.0,0.0,0.0,0.0,1.6275,1.6886,1.6991,1.6998,0.0,0.0,0.0,0.0,0.0,0.0,0.0,0.0,0.0,0.0,0.0,0.0,0.0,0.0,0.0,1.8347,1.8761,1.9081,1.9202,1.8992,1.8852,1.8852,1.9424,1.971,1.971,1.971,1.971,1.971,1.971,1.971,0.0,0.0,0.0,0.0,1.971,1.971,1.971,1.971,1.971,1.971,1.971,1.971,1.971,1.971,1.971,1.971,1.971,1.971,1.971,1.971,1.971,1.971,1.9698,1.9698,1.9504,1.8708,1.8486,1.8377,1.7959,1.7816,1.7459,1.6253,1.6366,1.6538,1.5974,1.5831,1.5801,1.5801,1.5801,1.5801,1.5801,1.5801,1.5801,1.5801,1.5801,1.5801,1.5801,1.5801,1.5801,1.5801,1.5801,1.5801,1.5801,1.5801,1.5801,1.5801,1.5801,1.5801,1.5801,1.5801,1.5801,1.5801,1.5671,1.5617,1.5617,1.5533,1.5445,0.0,0.0,0.0,0.0,1.4616,0.0,0.0,0.0,0.0,0.0,0.0,1.6275,1.6886,1.6991,0.0,0.0,0.0,0.0,0.0,0.0,0.0,0.0,0.0,0.0,0.0,0.0,0.0,0.0,0.0,1.8463,1.8816,1.904,1.9202,1.9349,1.9436,1.9495,1.9495,1.9624,1.971,1.971,1.971,1.971,1.971,1.971,1.971,0.0,0.0,0.0,1.971,1.971,1.971,1.971,1.971,1.971,1.971,1.971,1.971,1.971,1.971,1.971,1.971,1.971,1.971,1.971,1.971,1.971,1.971,1.9693,1.971,1.9642,1.946,1.9392,1.9367,1.9254,1.8845,1.8379,1.8084,1.7316,1.666,1.6523,1.6116,1.5801,1.5801,1.5801,1.5801,1.5801,1.5801,1.5801,1.5801,1.5801,1.5801,1.5801,1.5801,1.5801,1.5801,1.5801,1.5801,1.5801,1.5801,1.5801,1.5801,1.5801,1.5801,1.5801,1.5801,1.5801,1.5801,1.5773,1.5742,1.5742,1.5632,1.5603,1.6497,1.6028,1.5539,1.5252,1.5176,1.5195,0.0,0.0,0.0,0.0,0.0,0.0,1.6939,0.0,0.0,0.0,0.0,0.0,0.0,0.0,0.0,0.0,0.0,0.0,0.0,0.0,0.0,0.0,0.0,1.8762,1.9066,1.9217,1.9364,1.9535,1.9639,1.971,1.971,1.971,1.971,1.971,1.971,1.971,1.971,1.971,1.971,0.0,0.0,1.971,1.971,1.971,1.971,1.971,1.971,1.971,1.971,1.971,1.971,1.971,1.971,1.971,1.971,1.971,1.971,1.971,1.971,1.971,1.971,1.971,1.971,1.971,1.971,1.971,1.9612,1.9316,1.8958,1.861,1.8318,1.7678,1.716,1.716,1.6895,1.6565,1.6269,1.6208,1.6116,1.5831,1.5801,1.5801,1.5801,1.5801,1.5801,1.5801,1.5801,1.5801,1.5801,1.5801,1.5801,1.5801,1.5801,1.5801,1.5801,1.5801,1.5801,1.5801,1.5801,1.5801,1.5801,1.5801,1.5801,1.5801,1.573,1.5734,1.6341,1.5937,1.5639,1.5595,1.564,1.5723,0.0,0.0,0.0,0.0,0.0,0.0,0.0,0.0,0.0,0.0,0.0,0.0,0.0,0.0,0.0,0.0,0.0,0.0,0.0,0.0,0.0,0.0,0.0,1.9081,1.9272,1.9378,1.9522,1.9695,1.971,1.971,1.971,1.971,1.971,1.971,1.971,1.971,1.971,1.971,1.971,1.971,0.0,0.0,1.971,1.971,1.971,1.971,1.971,1.971,1.971,1.971,1.971,1.971,1.971,1.971,1.971,1.971,1.971,1.971,1.971,1.971,1.971,1.971,1.971,1.971,1.971,1.971,1.9566,1.8988,1.8845,1.8708,1.8129,1.7928,1.7846,1.7846,1.777,1.752,1.6956,1.6849,1.6645,1.6035,1.5944,1.5892,1.5816,1.5801,1.5801,1.5801,1.5801,1.5801,1.5801,1.5801,1.5801,1.5801,1.5801,1.5801,1.5801,1.5801,1.5801,1.5801,1.5801,1.5801,1.5801,1.5801,1.5801,1.5801,1.5801,1.5801,1.6679,1.6485,1.6295,1.6061,1.6256,1.6565,0.0,0.0,0.0,0.0,0.0,0.0,0.0,0.0,0.0,0.0,0.0,0.0,0.0,0.0,0.0,0.0,0.0,0.0,0.0,0.0,0.0,0.0,0.0,1.9184,1.9606,1.964,1.9674,1.971,1.971,1.971,1.971,1.971,1.971,1.971,1.971,1.971,1.971,1.971,1.971,1.971,0.0,1.971,1.971,1.971,1.971,1.971,1.971,1.971,1.971,1.971,1.971,1.971,1.971,1.971,1.971,1.971,1.971,1.971,1.971,1.971,1.971,1.971,1.971,1.971,1.971,1.971,1.9673,1.9566,1.9551,1.9521,1.9423,1.8958,1.8549,1.8549,1.8099,1.7678,1.7566,1.755,1.7316,1.666,1.6568,1.6381,1.5862,1.5801,1.5801,1.5801,1.5801,1.5801,1.5801,1.5801,1.5801,1.5801,1.5801,1.5801,1.5801,1.5801,1.5801,1.5801,1.5801,1.5801,1.5801,1.5801,1.5801,1.5801,1.5801,1.5801,1.6897,1.6735,1.6576,1.6464,1.6447,1.6525,0.0,0.0,0.0,0.0,0.0,0.0,0.0,0.0,0.0,0.0,0.0,0.0,0.0,0.0,0.0,0.0,0.0,0.0,0.0,0.0,0.0,0.0,0.0,0.0,1.9522,1.9468,1.9462,1.9535,1.9639,1.971,1.971,1.971,1.971,1.971,1.971,1.971,1.971,1.971,1.971,1.971,0.0,1.971,1.971,1.971,1.971,1.971,1.971,1.971,1.971,1.971,1.971,1.971,1.971,1.971,1.971,1.971,1.971,1.971,1.971,1.971,1.971,1.971,1.971,1.971,1.971,1.971,1.971,1.971,1.971,1.971,1.971,1.946,1.924,1.924,1.8988,1.8677,1.8303,1.8236,1.8001,1.7331,1.6925,1.6599,1.6315,1.6005,1.5801,1.5801,1.5801,1.5801,1.5801,1.5801,1.5801,1.5801,1.5801,1.5801,1.5801,1.5801,1.5801,1.5801,1.5801,1.5801,1.5801,1.5801,1.5801,1.5801,1.5801,1.5801,1.6883,1.6775,1.6648,0.0,0.0,0.0,0.0,0.0,0.0,0.0,0.0,0.0,0.0,0.0,0.0,0.0,0.0,0.0,0.0,0.0,0.0,0.0,0.0,0.0,0.0,0.0,0.0,0.0,0.0,0.0,1.9451,1.9364,1.9359,1.9466,1.9625,1.971,1.971,1.971,1.971,1.971,1.971,1.971,1.971,1.971,1.971,1.971,1.971,1.971,1.971,1.971,1.971,1.971,1.971,1.971,1.971,1.971,1.971,1.971,1.971,1.971,1.971,1.971,1.971,1.971,1.971,1.971,1.971,1.971,1.971,1.971,1.971,1.971,1.971,1.971,1.971,1.971,1.971,1.971,1.971,1.971,1.971,1.9536,1.9019,1.8927,1.8708,1.8038,1.7505,1.7051,1.6742,1.6299,1.5959,1.5816,1.5801,1.5801,1.5801,1.5801,1.5801,1.5801,1.5801,1.5801,1.5801,1.5801,1.5801,1.5801,1.5801,1.5801,1.5801,1.5801,1.5801,1.5801,1.5801,1.5801,1.6566,1.6531,1.6478,0.0,0.0,0.0,0.0,0.0,0.0,0.0,0.0,0.0,0.0,0.0,0.0,0.0,0.0,0.0,0.0,0.0,0.0,0.0,0.0,0.0,0.0,0.0,0.0,0.0,0.0,0.0,1.9674,1.9669,1.9669,1.9674,1.9695,1.971,1.971,1.971,1.971,1.971,1.971,1.971,1.971,1.971,1.971,1.971,1.971,1.971,1.971,1.971,1.971,1.971,1.971,1.971,1.971,1.971,1.971,1.971,1.971,1.971,1.971,1.971,1.971,1.971,1.971,1.971,1.971,1.971,1.971,1.971,1.971,1.971,1.971,1.971,1.971,1.971,1.971,1.971,1.971,1.971,1.971,1.9679,1.9642,1.9627,1.9392,1.8723,1.8595,1.8114,1.6864,1.666,1.6427,1.5862,1.5801,1.5801,1.5801,1.5801,1.5801,1.5801,1.5801,1.5801,1.5801,1.5801,1.5801,1.5801,1.5801,1.5801,1.5801,1.5801,1.5801,1.5801,1.5801,1.5801,1.6641,1.6627,1.6614,0.0,0.0,0.0,0.0,0.0,0.0,0.0,0.0,0.0,0.0,0.0,0.0,0.0,0.0,0.0,0.0,0.0,0.0,0.0,0.0,0.0,0.0,0.0,0.0,0.0,0.0,0.0,1.9507,1.9507,1.9507,1.9507,1.9625,1.971,1.971,1.971,1.971,1.971,1.971,1.971,1.971,1.971,1.971,1.971,1.971,1.971,1.971,1.971,1.971,1.971,1.971,1.971,1.971,1.971,1.971,1.971,1.971,1.971,1.971,1.971,1.971,1.971,1.971,1.971,1.971,1.971,1.971,1.971,1.971,1.971,1.971,1.971,1.971,1.971,1.971,1.971,1.971,1.971,1.971,1.971,1.971,1.971,1.9612,1.9362,1.8973,1.8519,1.8001,1.7581,1.7068,1.6427,1.602,1.5801,1.5801,1.5801,1.5801,1.5801,1.5801,1.5801,1.5801,1.5801,1.5801,1.5801,1.5801,1.5801,1.5801,1.5801,1.5801,1.5801,1.5801,1.5801,1.6682,1.6696,1.6696,0.0,0.0,0.0,0.0,0.0,0.0,0.0,0.0,0.0,0.0,0.0,0.0,0.0,0.0,0.0,0.0,0.0,0.0,0.0,0.0,0.0,0.0,0.0,0.0,0.0,0.0,0.0,0.0,1.9486,1.9486,1.9486,1.9625,1.971,1.971,1.971,1.971,1.971,1.971,1.971,1.971,1.971,1.971,1.971,1.971,1.971,1.971,1.971,1.971,1.971,1.971,1.971,1.971,1.971,1.971,1.971,1.971,1.971,1.971,1.971,1.971,1.971,1.971,1.971,1.971,1.971,1.971,1.971,1.971,1.971,1.971,1.971,1.971,1.971,1.971,1.971,1.971,1.971,1.971,1.971,1.971,1.971,1.971,1.971,1.9316,1.8943,1.8723,1.8303,1.7678,1.6788,1.6162,1.5801,1.5801,1.5801,1.5801,1.5801,1.5801,1.5801,1.5801,1.5801,1.5801,1.5801,1.5801,1.5801,1.5801,1.5801,1.5801,1.5801,1.5801,1.5801,1.6655,1.6696,0.0,0.0,0.0,0.0,0.0,0.0,0.0,0.0,0.0,0.0,0.0,0.0,0.0,0.0,0.0,0.0,0.0,0.0,0.0,0.0,0.0,0.0,0.0,0.0,0.0,0.0,0.0,0.0,0.0,1.971,1.971,1.971,1.971,1.971,1.971,1.971,1.971,1.971,1.971,1.971,1.971,1.971,1.971,1.971,1.971,1.971,1.971,1.971,1.971,1.971,1.971,1.971,1.971,1.971,1.971,1.971,1.971,1.971,1.971,1.971,1.971,1.971,1.971,1.971,1.971,1.971,1.971,1.971,1.971,1.971,1.971,1.971,1.971,1.971,1.971,1.971,1.971,1.971,1.971,1.971,1.971,1.971,1.971,1.971,1.971,1.946,1.8784,1.8708,1.819,1.6849,1.6177,1.5816,1.5801,1.5801,1.5801,1.5801,1.5801,1.5801,1.5801,1.5801,1.5801,1.5801,1.5801,1.5801,1.5801,1.5801,1.5801,1.5801,1.5801,1.5801,1.6655,0.0,0.0,0.0,0.0,0.0,0.0,0.0,0.0,0.0,0.0,0.0,0.0,0.0,0.0,0.0,0.0,0.0,0.0,0.0,0.0,0.0,0.0,0.0,0.0,0.0,0.0,0.0,1.9674,1.971,1.971,1.971,1.971,1.971,1.971,1.971,1.971,1.971,1.971,1.971,1.971,1.971,1.971,1.971,1.971,1.971,1.971,1.971,1.971,1.971,1.971,1.971,1.971,1.971,1.971,1.971,1.971,1.971,1.971,1.971,1.971,1.971,1.971,1.971,1.971,1.971,1.971,1.971,1.971,1.971,1.971,1.971,1.971,1.971,1.971,1.971,1.971,1.971,1.971,1.971,1.971,1.971,1.971,1.971,1.971,1.971,1.971,1.9627,1.9423,1.8988,1.8364,1.7505,1.6818,1.6253,1.5831,1.5801,1.5801,1.5801,1.5801,1.5801,1.5801,1.5801,1.5801,1.5801,1.5801,1.5801,1.5801,1.5801,1.5801,1.5801,1.5801,1.5801,1.6688,0.0,0.0,0.0,0.0,0.0,0.0,0.0,0.0,0.0,0.0,0.0,0.0,0.0,0.0,0.0,0.0,0.0,0.0,0.0,1.8693,1.8933,1.9149,0.0,1.9501,1.9522,1.9571,1.9695,1.971,1.971,1.971,1.971,1.971,1.971,1.971,1.971,1.971,1.971,1.971,1.971,1.971,1.971,1.971,1.971,1.971,1.971,1.971,1.971,1.971,1.971,1.971,1.971,1.971,1.971,1.971,1.971,1.971,1.971,1.971,1.971,1.971,1.971,1.971,1.971,1.971,1.971,1.971,1.971,1.971,1.971,1.971,1.971,1.971,1.971,1.971,1.971,1.971,1.971,1.971,1.971,1.971,1.971,1.971,1.971,1.971,1.971,1.971,1.971,1.971,1.9117,1.844,1.777,1.7099,1.6458,1.5847,1.5801,1.5801,1.5801,1.5801,1.5801,1.5801,1.5801,1.5801,1.5801,1.5801,1.5801,1.5801,1.5801,1.5801,1.5801,1.5801,1.5801,0.0,0.0,0.0,0.0,0.0,0.0,0.0,0.0,0.0,0.0,0.0,0.0,0.0,0.0,0.0,0.0,0.0,0.0,0.0,0.0,1.8913,1.9183,1.9344,1.9501,1.9674,1.971,1.971,1.971,1.971,1.971,1.971,1.971,1.971,1.971,1.971,1.971,1.971,1.971,1.971,1.971,1.971,1.971,1.971,1.971,1.971,1.971,1.971,1.971,1.971,1.971,1.971,1.971,1.971,1.971,1.971,1.971,1.971,1.971,1.971,1.971,1.971,1.971,1.971,1.971,1.971,1.971,1.971,1.971,1.971,1.971,1.971,1.971,1.971,1.971,1.971,1.971,1.971,1.971,1.971,1.971,1.971,1.971,1.971,1.971,1.971,1.971,1.971,1.971,1.971,1.9177,1.8534,1.7861,1.7255,1.6614,1.5944,1.5877,1.5862,1.5801,1.5801,1.5801,1.5801,1.5801,1.5801,1.5801,1.5801,1.5801,1.5801,1.5801,1.5801,1.5801,1.5801,1.5801,0.0,0.0,0.0,0.0,0.0,0.0,0.0,0.0,0.0,0.0,0.0,0.0,0.0,0.0,0.0,0.0,0.0,0.0,0.0,0.0,0.0,1.933,1.9522,1.9654,1.971,1.971,1.971,1.971,1.971,1.971,1.971,1.971,1.971,1.971,1.971,1.971,1.971,1.971,1.971,1.971,1.971,1.971,1.971,1.971,1.971,1.971,1.971,1.971,1.971,1.971,1.971,1.971,1.971,1.971,1.971,1.971,1.971,1.971,1.971,1.971,1.971,1.971,1.971,1.971,1.971,1.971,1.971,1.971,1.971,1.971,1.971,1.971,1.971,1.971,1.971,1.971,1.971,1.971,1.971,1.971,1.971,1.971,1.971,1.971,1.971,1.971,1.971,1.971,1.971,1.9566,1.9223,1.8564,1.8364,1.7788,1.6614,1.6507,1.6299,1.5831,1.5801,1.5801,1.5801,1.5801,1.5801,1.5801,1.5801,1.5801,1.5801,1.5801,1.5801,1.5801,1.5801,1.5801,0.0,0.0,0.0,0.0,0.0,0.0,0.0,0.0,0.0,0.0,0.0,0.0,0.0,0.0,0.0,0.0,0.0,0.0,0.0,0.0,0.0,1.9522,1.964,1.971,1.971,1.971,1.971,1.971,1.971,1.971,1.971,1.971,1.971,1.971,1.971,1.971,1.971,1.971,1.971,1.971,1.971,1.971,1.971,1.971,1.971,1.971,1.971,1.971,1.971,1.971,1.971,1.971,1.971,1.971,1.971,1.971,1.971,1.971,1.971,1.971,1.971,1.971,1.971,1.971,1.971,1.971,1.971,1.971,1.971,1.971,1.971,1.971,1.971,1.971,1.971,1.971,1.971,1.971,1.971,1.971,1.971,1.971,1.971,1.971,1.971,1.971,1.971,1.971,1.971,1.971,1.9438,1.8769,1.8708,1.816,1.6818,1.669,1.6442,1.5831,1.5801,1.5801,1.5801,1.5801,1.5801,1.5801,1.5801,1.5801,1.5801,1.5801,1.5801,1.5801,1.5801,1.5801,0.0,0.0,0.0,0.0,0.0,0.0,0.0,0.0,0.0,0.0,0.0,0.0,0.0,0.0,0.0,1.8199,1.8546,1.8879,1.9021,1.9257,1.9466,1.9674,1.971,1.971,1.971,1.971,1.971,1.971,1.971,1.971,1.971,1.971,1.971,1.971,1.971,1.971,1.971,1.971,1.971,1.971,1.971,1.971,1.971,1.971,1.971,1.971,1.971,1.971,1.971,1.971,1.971,1.971,1.971,1.971,1.971,1.971,1.971,1.971,1.971,1.971,1.971,1.971,1.971,1.971,1.971,1.971,1.971,1.971,1.971,1.971,1.971,1.971,1.971,1.971,1.971,1.971,1.971,1.971,1.971,1.971,1.971,1.971,1.971,1.971,1.971,1.971,1.971,1.971,1.971,1.971,1.949,1.8927,1.8867,1.8379,1.7148,1.694,1.6614,1.599,1.5862,1.5801,1.5801,1.5801,1.5801,1.5801,1.5801,1.5801,1.5801,1.5801,1.5801,1.5801,1.5801,1.5801,0.0,0.0,0.0,0.0,0.0,0.0,0.0,0.0,0.0,0.0,0.0,0.0,0.0,1.8532,1.8668,1.8483,1.8742,1.9021,1.9149,1.9295,1.9466,1.9674,1.971,1.971,1.971,1.971,1.971,1.971,1.971,1.971,1.971,1.971,1.971,1.971,1.971,1.971,1.971,1.971,1.971,1.971,1.971,1.971,1.971,1.971,1.971,1.971,1.971,1.971,1.971,1.971,1.971,1.971,1.971,1.971,1.971,1.971,1.971,1.971,1.971,1.971,1.971,1.971,1.971,1.971,1.971,1.971,1.971,1.971,1.971,1.971,1.971,1.971,1.971,1.971,1.971,1.971,1.971,1.971,1.971,1.971,1.971,1.971,1.971,1.971,1.971,1.971,1.971,1.971,1.971,1.971,1.9673,1.9581,1.9566,1.9255,1.8504,1.7895,1.7285,1.6614,1.6085,1.5801,1.5801,1.5801,1.5801,1.5801,1.5801,1.5801,1.5801,1.5801,1.5801,1.5801,1.5801,1.5801,1.7216,0.0,0.0,0.0,0.0,0.0,0.0,0.0,0.0,0.0,1.8361,1.8415,1.8415,1.862,1.8771,1.8674,1.8918,1.9169,1.929,1.9468,1.9605,1.9695,1.971,1.971,1.971,1.971,1.971,1.971,1.971,1.971,1.971,1.971,1.971,1.971,1.971,1.971,1.971,1.971,1.971,1.971,1.971,1.971,1.971,1.971,1.971,1.971,1.971,1.971,1.971,1.971,1.971,1.971,1.971,1.971,1.971,1.971,1.971,1.971,1.971,1.971,1.971,1.971,1.971,1.971,1.971,1.971,1.971,1.971,1.971,1.971,1.971,1.971,1.971,1.971,1.971,1.971,1.971,1.971,1.971,1.971,1.971,1.971,1.971,1.971,1.971,1.971,1.971,1.971,1.971,1.971,1.971,1.971,1.971,1.9423,1.8754,1.8425,1.7818,1.6772,1.6458,1.6147,1.5816,1.5801,1.5801,1.5801,1.5801,1.5801,1.5801,1.5801,1.5801,1.5801,1.5801,1.5801,0.0,0.0,1.7297,1.7297,1.7378,1.75,0.0,0.0,1.8199,0.0,1.8469,1.8586,1.8586,1.8722,1.8845,1.8845,1.9075,1.929,1.9383,1.9569,1.971,1.971,1.971,1.971,1.971,1.971,1.971,1.971,1.971,1.971,1.971,1.971,1.971,1.971,1.971,1.971,1.971,1.971,1.971,1.971,1.971,1.971,1.971,1.971,1.971,1.971,1.971,1.971,1.971,1.971,1.971,1.971,1.971,1.971,1.971,1.971,1.971,1.971,1.971,1.971,1.971,1.971,1.971,1.971,1.971,1.971,1.971,1.971,1.971,1.971,1.971,1.971,1.971,1.971,1.971,1.971,1.971,1.971,1.971,1.971,1.971,1.971,1.971,1.971,1.971,1.971,1.971,1.971,1.971,1.971,1.971,1.971,1.971,1.9505,1.9003,1.8799,1.8273,1.727,1.7053,1.6675,1.6049,1.6034,1.5959,1.5801,1.5801,1.5801,1.5801,1.5801,1.5801,1.5801,1.5801,1.5801,0.0,1.7582,0.0,1.7582,1.7575,0.0,0.0,0.0,1.8327,1.8469,1.8654,1.8771,1.8771,1.89,1.8987,1.8987,1.9202,1.9383,1.9404,1.9569,1.971,1.971,1.971,1.971,1.971,1.971,1.971,1.971,1.971,1.971,1.971,1.971,1.971,1.971,1.971,1.971,1.971,1.971,1.971,1.971,1.971,1.971,1.971,1.971,1.971,1.971,1.971,1.971,1.971,1.971,1.971,1.971,1.971,1.971,1.971,1.971,1.971,1.971,1.971,1.971,1.971,1.971,1.971,1.971,1.971,1.971,1.971,1.971,1.971,1.971,1.971,1.971,1.971,1.971,1.971,1.971,1.971,1.971,1.971,1.971,1.971,1.971,1.971,1.971,1.971,1.971,1.971,1.971,1.971,1.971,1.971,1.971,1.971,1.9695,1.9642,1.9064,1.8677,1.8595,1.8001,1.7346,1.6675,1.6645,1.6381,1.5816,1.5801,1.5801,1.5801,1.5801,1.5801,1.5801,1.5801,1.5801,0.0,0.0,0.0,1.7792,1.7792,1.7874,1.8158,1.8273,1.8341,1.8469,1.8654,1.8806,1.8806,1.8913,1.9027,1.9115,1.9276,1.9452,1.9569,1.9654,1.971,1.971,1.971,1.971,1.971,1.971,1.971,1.971,1.971,1.971,1.971,1.971,1.971,1.971,1.971,1.971,1.971,1.971,1.971,1.971,1.97,1.9708,1.9708,1.9697,1.9704,1.9704,1.9704,1.9696,1.971,1.971,1.971,1.971,1.971,1.971,1.971,1.971,1.971,1.971,1.971,1.971,1.971,1.971,1.971,1.971,1.971,1.971,1.971,1.971,1.971,1.971,1.971,1.971,1.971,1.971,1.971,1.971,1.971,1.971,1.971,1.971,1.971,1.971,1.971,1.971,1.971,1.971,1.971,1.971,1.971,1.971,1.971,1.971,1.971,1.971,1.971,1.9475,1.9162,1.8723,1.8473,1.8038,1.7361,1.6925,1.6599,1.6381,1.6005,1.5801,1.5801,1.5801,1.5801,1.5801,1.5801,1.5801,1.7738,0.0,0.0,0.0,1.7928,1.803,1.8253,1.8327,1.8409,1.8571,1.8709,1.8811,1.8859,1.8988,1.9094,1.9183,1.9364,1.955,1.9674,1.971,1.971,1.971,1.971,1.971,1.971,1.971,1.971,1.971,1.971,0.0,1.971,1.971,1.971,1.971,1.971,1.971,1.971,1.971,1.9693,1.9702,1.9691,1.9794,1.9978,1.9967,1.9974,1.9974,1.9974,1.9866,1.9708,1.9708,1.9708,1.9708,1.9708,1.9708,1.9708,1.9708,1.9703,1.9702,1.9702,1.9698,1.971,1.971,1.971,1.971,1.971,1.971,1.971,1.971,1.971,1.971,1.971,1.971,1.971,1.971,1.971,1.971,1.971,1.971,1.971,1.971,1.971,1.971,1.971,1.971,1.971,1.971,1.971,1.971,1.971,1.971,1.971,1.971,1.971,1.971,1.971,1.971,1.9505,1.9064,1.9034,1.8723,1.8068,1.7611,1.7163,1.6706,1.6315,1.6005,1.5801,1.5801,1.5801,1.5801,1.5801,1.5801,0.0,0.0,0.0,0.0,0.0,0.0,1.8287,1.8415,1.8557,1.8756,1.8806,1.8845,1.8988,1.9115,1.9203,1.9218,1.9483,1.971,1.971,1.971,1.971,1.971,1.971,1.971,1.971,1.971,1.971,1.971,1.971,1.971,1.971,1.971,1.971,1.971,1.971,1.971,1.971,1.971,1.9717,1.9699,1.9712,2.0009,2.0501,2.0506,2.0506,2.0506,2.0506,2.0197,1.9716,1.9719,1.9719,1.9719,1.9719,1.9719,1.9719,1.9719,1.9725,1.9714,1.9714,1.9703,1.9693,1.9693,1.9693,1.9693,1.9693,1.9693,1.9693,1.9708,1.9708,1.9708,1.9708,1.9708,1.971,1.971,1.971,1.971,1.971,1.971,1.971,1.971,1.971,1.971,1.971,1.971,1.971,1.971,1.971,1.971,1.971,1.971,1.971,1.971,1.971,1.971,1.971,1.971,1.971,1.971,1.971,1.9408,1.8754,1.8708,1.8099,1.6788,1.6742,1.6442,1.5862,1.5816,1.5801,1.5801,1.5801,1.5801,1.8016,0.0,0.0,0.0,0.0,0.0,1.8742,1.8654,1.8571,1.8885,1.8874,1.8845,1.8988,1.9115,1.9237,1.933,1.9535,1.971,1.971,1.971,1.971,1.971,1.971,1.971,1.971,1.971,1.971,0.0,1.971,1.971,1.971,1.971,1.971,1.971,1.971,1.971,1.971,1.9842,1.9834,1.9699,2.0083,2.0352,2.0501,2.0496,2.0503,2.0503,2.0503,2.0417,2.0286,2.0287,2.0276,2.0276,2.0276,2.0276,2.0276,2.0276,2.0273,2.0223,1.9822,1.9694,1.9707,1.9707,1.9707,1.9707,1.9707,1.9707,1.9738,1.993,1.9992,1.9992,1.9992,1.9919,1.9836,1.9836,1.9763,1.971,1.971,1.971,1.971,1.971,1.971,1.971,1.971,1.971,1.971,1.971,1.971,1.971,1.971,1.971,1.971,1.971,1.971,1.971,1.971,1.971,1.971,1.971,1.971,1.9612,1.9423,1.8958,1.8534,1.8145,1.7678,1.7331,1.7175,1.6253,1.5801,1.5801,1.5801,1.5801,0.0,0.0,0.0,0.0,0.0,0.0,1.8844,1.8777,1.8709,1.8953,1.89,1.8845,1.8988,1.9115,1.9242,1.9383,1.9571,1.971,1.971,1.971,1.971,1.971,1.971,1.971,1.971,1.971,1.971,1.971,1.971,1.971,1.971,1.971,1.971,1.971,1.971,1.971,1.971,1.9899,1.9955,1.9868,2.0301,2.0496,2.0503,2.0505,2.0492,2.0492,2.0492,2.0492,2.051,2.0491,2.0501,2.0501,2.0501,2.0501,2.0501,2.0501,2.0498,2.0466,2.014,2.0028,2.0036,2.0036,2.0036,2.0036,2.0036,2.0036,2.0067,2.0214,2.0198,2.0098,2.0098,2.0046,1.9978,1.9978,1.9924,1.9871,1.9871,1.9871,1.9831,1.9723,1.971,1.971,1.971,1.971,1.971,1.971,1.971,1.971,1.971,1.971,1.971,1.971,1.971,1.971,1.971,1.971,1.971,1.971,1.971,1.971,1.971,1.9316,1.8988,1.8708,1.8318,1.7971,1.7709,1.6675,1.6049,1.5801,1.5801,1.5801,0.0,0.0,0.0,0.0,0.0,0.0,1.8777,1.8826,1.8859,1.8993,1.8934,1.8894,1.9021,1.9134,1.9271,1.9419,1.9569,1.971,1.971,1.971,1.971,1.971,1.971,1.971,1.971,1.971,1.971,1.971,1.971,1.971,1.971,1.971,1.971,1.971,1.971,1.971,1.9723,1.9912,2.0045,2.0101,2.0376,2.0503,2.0492,2.0492,2.0492,2.0492,2.0492,2.0492,2.0492,2.0492,2.0492,2.0492,2.0492,2.0492,2.0492,2.0492,2.0505,2.0491,2.0491,2.0503,2.0509,2.0509,2.0509,2.0509,2.0509,2.0509,2.0509,2.0509,2.0331,2.0137,2.0137,2.0139,2.0119,2.0119,2.0103,2.0098,2.0098,2.0098,2.0031,1.9797,1.9742,1.9742,1.9742,1.9742,1.9742,1.9742,1.9742,1.9742,1.9742,1.9729,1.9723,1.9723,1.9708,1.971,1.971,1.971,1.971,1.971,1.971,1.971,1.971,1.971,1.9423,1.8814,1.8814,1.8471,1.7816,1.7068,1.6427,1.5892,1.5831,1.5801,0.0,0.0,0.0,0.0,0.0,0.0,1.8953,1.8953,1.9007,1.9128,1.9143,1.9169,1.9295,1.9344,1.9419,1.9605,1.9674,1.971,1.971,1.971,1.971,1.971,1.971,1.971,1.971,1.971,1.971,1.971,1.971,1.971,1.971,1.971,1.971,1.971,1.971,1.9742,1.9856,2.0007,2.0086,2.01,2.0374,2.0505,2.0492,2.0492,2.0492,2.0492,2.0492,2.0492,2.0492,2.0492,2.0492,2.0492,2.0492,2.0492,2.0492,2.0492,2.051,2.0505,2.0505,2.0508,2.0505,2.0505,2.0505,2.0505,2.0505,2.0505,2.0505,2.0505,2.0451,2.0419,2.0419,2.0331,2.0259,2.0259,2.0171,2.0098,2.0098,2.0098,2.0085,2.0031,2.001,2.001,2.001,2.001,2.001,2.001,2.001,2.001,2.001,1.9924,1.9856,1.9856,1.9763,1.971,1.971,1.971,1.971,1.971,1.971,1.971,1.971,1.971,1.9642,1.9505,1.9505,1.9177,1.8504,1.7285,1.6645,1.6507,1.6034,1.5801,0.0,0.0,0.0,1.89,0.0,0.0,0.0,1.8953,1.8953,1.9164,1.9096,1.9041,1.9183,1.9256,1.933,1.9428,1.9586,1.971,1.971,1.971,1.971,1.971,1.971,1.971,1.971,1.971,1.971,1.971,1.971,1.971,1.971,1.971,1.971,1.971,1.971,1.9763,1.9905,2.0031,2.0111,2.0102,2.0376,2.0492,2.0492,2.0492,2.0492,2.0492,2.0492,2.0492,2.0492,2.0492,2.0492,2.0492,2.0492,2.0492,2.0492,2.0492,2.0492,2.0492,2.0492,2.0492,2.0492,2.0492,2.0492,2.0492,2.0492,2.0492,2.0492,2.0492,2.0492,2.0492,2.0492,2.0453,2.0406,2.0406,2.0352,2.03,2.03,2.03,2.03,2.03,2.03,2.0259,2.0119,2.0098,2.0098,2.0098,2.0098,2.0098,2.0098,2.0046,1.9978,1.9905,1.9831,1.9763,1.971,1.971,1.971,1.971,1.971,1.971,1.971,1.971,1.971,1.971,1.9763,1.9622,1.9294,1.8291,1.7427,1.669,1.6397,1.6085,0.0,0.0,0.0,0.0,0.0,1.8993,0.0,0.0,0.0,1.9115,1.9007,1.8913,1.9021,1.9128,1.9183,1.9169,1.9428,1.9625,1.9606,1.9654,1.971,1.971,1.971,1.971,1.971,1.9723,1.9729,1.971,1.9723,1.9729,1.971,1.971,1.971,1.971,1.971,1.9783,1.9939,2.0046,2.0124,2.019,2.0406,2.0492,2.0492,2.0492,2.0492,2.0492,2.0492,2.0492,2.0492,2.0492,2.0492,2.0492,2.0492,2.0492,2.0492,2.0492,2.0492,2.0492,2.0492,2.0492,2.0492,2.0492,2.0492,2.0492,2.0492,2.0492,2.0492,2.0492,2.0492,2.0492,2.0492,2.0492,2.0492,2.0492,2.0492,2.0492,2.0492,2.0492,2.0492,2.0492,2.0492,2.0424,2.0212,2.0171,2.0171,2.0171,2.0171,2.0171,2.0171,2.0153,2.0085,1.996,1.9919,1.9851,1.9708,1.971,1.971,1.971,1.971,1.971,1.971,1.9723,1.9742,1.9783,1.9885,1.9937,1.9937,1.9405,1.8434,1.7113,1.683,1.6442,0.0,0.0,0.0,0.0,1.8913,0.0,0.0,0.0,1.8987,1.9021,0.0,0.0,0.0,0.0,0.0,1.904,1.9257,1.9383,1.9271,1.9518,1.971,1.971,1.971,1.971,1.971,1.9812,1.9831,1.9708,1.9817,1.9831,1.971,1.971,1.971,1.971,1.971,1.9815,2.0064,2.0083,2.0225,2.044,2.0492,2.0492,2.0492,2.0492,2.0492,2.0492,2.0492,2.0492,2.0492,2.0492,2.0492,2.0492,2.0492,2.0492,2.0492,2.0492,2.0492,2.0492,2.0492,2.0492,2.0492,2.0492,2.0492,2.0492,2.0492,2.0492,2.0492,2.0492,2.0492,2.0492,2.0492,2.0492,2.0492,2.0492,2.0492,2.0492,2.0492,2.0492,2.0492,2.0492,2.0492,2.0494,2.0453,2.0453,2.0453,2.0453,2.0453,2.0453,2.0453,2.0352,2.0225,2.0085,1.9978,1.9851,1.9708,1.971,1.971,1.971,1.971,1.971,1.971,1.9817,1.9924,2.0051,2.0064,2.0085,2.0085,2.0,1.9502,1.8625,1.7314,1.666,0.0,0.0,0.0,0.0,0.0,0.0,0.0,0.0,1.8913,0.0,0.0,0.0,0.0,0.0,0.0,0.0,1.9237,1.9349,1.9217,1.9393,1.9571,1.9689,1.971,1.971,1.971,1.9817,1.9836,1.9708,1.9817,1.9831,1.971,1.971,1.971,1.971,1.971,1.9831,2.0098,2.0098,2.0225,2.0492,2.0492,2.0492,2.0492,2.0492,2.0492,2.0492,2.0492,2.0492,2.0492,2.0492,2.0492,2.0492,2.0492,2.0492,2.0492,2.0492,2.0492,2.0492,2.0492,2.0492,2.0492,2.0492,2.0492,2.0492,2.0492,2.0492,2.0492,2.0492,2.0492,2.0492,2.0492,2.0492,2.0492,2.0492,2.0492,2.0492,2.0492,2.0492,2.0492,2.0492,2.0492,2.0492,2.0492,2.0492,2.0492,2.0492,2.0492,2.0492,2.0492,2.0453,2.035,2.0225,2.0098,1.9958,1.9831,1.9742,1.971,1.971,1.9763,1.9817,1.9817,1.9937,2.0046,2.0098,2.0171,2.0225,2.0225,2.0225,2.0044,1.9687,1.8594,1.7678,1.8952,0.0,0.0,0.0,0.0,0.0,0.0,0.0,0.0,0.0,0.0,0.0,0.0,0.0,0.0,0.0,0.0,1.929,1.9169,1.9256,1.9419,1.9606,1.9674,1.971,1.971,1.9851,1.9885,1.9708,1.9856,1.9885,1.9708,1.971,1.971,1.971,1.971,1.9831,2.0098,2.0098,2.0225,2.0492,2.0492,2.0492,2.0492,2.0492,2.0492,2.0492,2.0492,2.0492,2.0492,2.0492,2.0492,2.0492,2.0492,2.0492,2.0492,2.0492,2.0492,2.0492,2.0492,2.0492,2.0492,2.0492,2.0492,2.0492,2.0492,2.0492,2.0492,2.0492,2.0492,2.0492,2.0492,2.0492,2.0492,2.0492,2.0492,2.0492,2.0492,2.0492,2.0492,2.0492,2.0492,2.0492,2.0492,2.0492,2.0492,2.0492,2.0492,2.0492,2.0492,2.0492,2.0453,2.0318,2.0212,2.0085,1.9903,1.9817,1.9744,1.971,1.9798,1.9885,1.996,2.0051,2.0139,2.0212,2.0313,2.0352,2.0352,2.0352,2.0352,2.0336,1.9484,1.8583,0.0,0.0,0.0,0.0,0.0,0.0,0.0,0.0,1.8993,0.0,0.0,0.0,0.0,0.0,0.0,0.0,0.0,0.0,0.0,1.9115,0.0,0.0,0.0,0.0,1.971,1.9937,1.9976,1.9723,1.9937,1.9978,1.9708,1.971,1.971,1.971,1.971,1.9831,2.0098,2.0098,2.0225,2.0492,2.0492,2.0492,2.0492,2.0492,2.0492,2.0492,2.0492,2.0492,2.0492,2.0492,2.0492,2.0492,2.0492,2.0492,2.0492,2.0492,2.0492,2.0492,2.0492,2.0492,2.0492,2.0492,2.0492,2.0492,2.0492,2.0492,2.0492,2.0492,2.0492,2.0492,2.0492,2.0492,2.0492,2.0492,2.0492,2.0492,2.0492,2.0492,2.0492,2.0492,2.0492,2.0492,2.0492,2.0492,2.0492,2.0492,2.0492,2.0492,2.0492,2.0492,2.0453,2.0318,2.0298,2.0191,1.9919,1.9905,1.9831,1.971,1.971,1.9815,2.0085,2.0098,2.0225,2.0478,2.0494,2.0492,2.0492,2.0492,2.0492,2.0478,1.9532,1.9081,0.0,0.0,1.9128,1.9128,0.0,0.0,0.0,0.0,0.0,0.0,0.0,0.0,0.0,0.0,1.9169,0.0,0.0,1.9256,0.0,1.9041,0.0,0.0,0.0,0.0,1.9689,1.9937,1.9992,1.9723,2.0031,2.0085,1.9723,1.9783,1.9797,1.971,1.971,1.9831,2.0098,2.0098,2.0225,2.0492,2.0492,2.0492,2.0492,2.0492,2.0492,2.0492,2.0492,2.0492,2.0492,2.0492,2.0492,2.0492,2.0492,2.0492,2.0492,2.0492,2.0492,2.0492,2.0492,2.0492,2.0492,2.0492,2.0492,2.0492,2.0492,2.0492,2.0492,2.0492,2.0492,2.0492,2.0492,2.0492,2.0492,2.0492,2.0492,2.0492,2.0492,2.0492,2.0492,2.0492,2.0492,2.0492,2.0492,2.0492,2.0492,2.0492,2.0492,2.0492,2.0492,2.0492,2.0478,2.044,2.0352,2.0225,2.0051,1.9871,1.9742,1.971,1.9783,1.9871,1.9958,2.0139,2.0279,2.0365,2.0453,2.0492,2.0492,2.0492,2.0492,2.0492,2.0178,1.9784,1.9256,1.9276,0.0,1.9276,1.9202,0.0,0.0,0.0,0.0,0.0,0.0,0.0,0.0,0.0,0.0,1.9217,1.9276,1.9242,0.0,1.9006,0.0,0.0,0.0,0.0,0.0,1.9856,1.9903,1.9783,2.0012,2.0064,1.9849,1.9885,1.9856,1.9763,1.9723,1.9831,2.0098,2.0098,2.0225,2.0492,2.0492,2.0492,2.0492,2.0492,2.0492,2.0492,2.0492,2.0492,2.0492,2.0492,2.0492,2.0492,2.0492,2.0492,2.0492,2.0492,2.0492,2.0492,2.0492,2.0492,2.0492,2.0492,2.0492,2.0492,2.0492,2.0492,2.0528,2.0634,2.0596,2.0528,2.065,2.0596,2.0492,2.0492,2.0492,2.0492,2.0492,2.0492,2.0492,2.0492,2.0492,2.0492,2.0492,2.0492,2.0492,2.0492,2.0492,2.0492,2.0492,2.0492,2.0492,2.0492,2.0419,2.0298,2.0119,1.9905,1.9742,1.971,1.9783,1.9851,1.9905,2.0064,2.0225,2.0365,2.0404,2.0494,2.0612,2.0525,2.0492,2.0492,2.0492,2.0263]}]]